GFSMA_925_temp_069.txt.gz
Temp
16 16 16 16 17 17 17 17 18 18 18 18 18 18 18 19 18 16 14 13 13 13 12 12 12 11 11 10 10 10 10 10 9 9 9 9 9 8 8 8 8 8 8
17 17 17 18 18 18 18 18 19 18 18 18 18 18 18 18 18 17 15 13 13 13 13 12 12 12 11 11 10 10 10 10 9 9 9 9 9 8 8 8 8 8 8
17 17 18 19 19 19 19 19 18 18 19 18 18 18 17 17 17 17 16 14 13 13 13 12 12 12 11 11 10 10 10 10 10 9 9 9 9 8 8 8 8 8 8
17 17 18 18 18 19 19 19 18 19 19 19 18 18 18 17 17 17 17 16 15 14 13 13 12 12 12 11 11 11 10 10 10 10 9 9 9 9 8 8 9 8 8
16 17 17 18 18 18 19 19 18 19 19 19 18 18 18 17 16 16 17 16 16 16 14 13 13 12 12 12 11 11 11 10 10 10 10 9 9 9 8 8 8 8 8
16 16 17 17 17 18 18 18 18 18 19 18 19 18 17 17 17 17 16 16 16 15 16 15 13 13 12 12 12 12 12 11 11 10 10 10 9 9 9 8 8 8 8
15 16 16 16 16 17 17 18 18 18 18 18 18 18 17 16 16 17 16 16 16 15 15 15 15 14 13 13 12 12 12 12 12 11 11 10 10 9 9 9 8 8 7
16 17 17 16 16 16 17 17 16 16 17 16 18 18 18 17 16 16 17 16 16 16 15 15 14 15 15 14 13 13 12 12 12 12 12 11 10 10 9 9 8 8 8
16 17 16 15 15 16 17 16 16 17 17 16 16 17 17 18 18 17 16 16 16 15 16 15 14 14 14 14 13 13 13 12 12 12 12 12 11 10 10 9 9 8 8
15 15 15 15 16 16 17 16 16 16 17 16 16 15 17 18 18 17 18 16 16 16 14 14 14 13 14 14 14 14 13 12 12 12 11 11 11 11 10 10 9 9 8
14 14 14 16 16 16 16 16 16 16 16 16 16 16 17 17 18 18 19 18 16 16 15 14 13 14 13 13 12 13 13 12 12 11 11 11 11 11 10 10 10 9 9
14 14 15 16 16 16 15 16 16 15 16 16 16 17 17 18 18 17 18 17 16 15 15 12 12 13 13 11 11 12 12 11 11 11 11 11 10 10 10 9 9 9 9
14 14 15 16 15 15 15 16 15 16 15 16 16 16 17 16 16 17 16 16 14 14 12 12 13 12 12 11 12 11 11 11 11 11 11 10 10 9 9 9 8 8 7
14 15 15 15 15 15 15 16 16 16 17 16 16 15 16 16 16 16 15 13 12 13 13 12 13 13 11 12 12 11 10 10 10 10 10 10 9 9 8 8 8 8 7
15 14 15 15 15 15 15 16 17 17 16 16 15 15 15 15 15 15 13 12 13 13 14 15 13 13 12 13 12 11 10 10 10 9 9 9 8 8 7 7 7 7 7
15 15 15 15 15 15 15 16 17 17 16 16 15 15 15 15 15 14 12 12 12 12 12 14 14 14 13 12 11 9 9 9 9 8 8 8 7 7 6 6 6 6 6
15 15 15 15 15 15 16 16 16 17 16 16 16 16 15 14 14 13 13 12 12 11 11 11 12 12 12 12 10 9 8 7 8 8 8 7 6 6 6 6 6 6 6
16 16 16 16 16 16 16 17 17 17 17 17 17 16 15 13 13 12 12 12 11 11 11 11 10 10 10 9 8 7 7 8 8 9 7 6 6 5 5 6 5 5 5
17 17 17 17 17 17 17 17 17 17 17 17 17 16 14 12 12 11 11 11 10 10 10 10 9 7 7 7 7 7 7 7 7 7 7 6 5 5 5 5 5 5 5
17 17 17 17 17 17 17 17 17 17 17 16 16 16 14 12 11 12 11 10 10 9 9 8 7 6 6 5 5 5 5 6 6 7 7 6 5 4 4 3 4 3 3
16 16 17 17 17 17 17 17 17 17 17 16 15 13 12 11 12 12 11 10 9 8 7 6 5 4 3 3 3 4 5 5 7 6 6 5 5 4 4 3 3 3 3
16 16 16 17 16 16 16 16 16 16 16 16 15 13 13 12 11 11 11 11 10 8 6 5 5 5 3 3 3 4 4 5 5 6 5 5 4 3 3 3 3 3 3
16 16 16 16 16 16 16 16 16 15 15 15 15 13 12 11 11 10 10 8 6 6 6 4 3 2 1 2 2 3 4 3 4 4 4 3 3 3 3 3 3 3 2
17 16 16 16 16 16 16 16 15 15 14 14 13 12 11 10 9 8 7 5 3 2 1 1 1 -0 -1 -0 1 2 2 2 2 1 1 1 2 2 2 2 2 2 1
17 17 16 16 16 16 16 16 15 14 12 11 10 9 8 7 6 5 5 1 -0 -0 -0 0 0 -0 -1 -2 -0 -0 -0 0 0 1 2 2 2 1 2 1 1 1 1
17 17 15 14 14 13 14 14 12 11 8 6 5 4 3 4 1 1 2 1 -2 -3 -2 -2 -3 -4 -1 -1 -1 -1 -2 -1 -1 -1 1 1 1 1 -0 0 1 0 0

GFSMA_925_temp_072.txt.gz
Temp
16 15 15 16 15 16 16 17 17 17 17 17 18 18 19 17 16 14 13 13 13 13 13 12 12 11 11 10 10 10 10 10 10 9 9 9 9 9 9 9 9 9 8
16 15 15 16 16 16 17 17 18 18 18 18 17 18 18 17 16 15 13 13 13 13 13 12 12 11 11 10 10 10 10 10 10 9 9 9 9 9 9 9 9 9 8
15 15 16 16 17 17 17 17 18 18 18 18 17 18 18 18 17 15 14 13 13 13 13 12 12 12 11 11 10 10 10 10 10 9 9 9 9 8 8 9 9 9 9
15 15 17 17 18 18 18 18 18 18 18 18 18 18 18 17 17 16 15 14 13 13 13 12 12 12 11 11 11 11 10 10 10 10 9 9 9 9 8 9 9 9 9
14 15 17 17 18 18 19 18 18 18 19 18 18 18 18 17 17 17 16 15 15 14 14 13 12 12 12 12 11 11 11 10 10 10 10 9 9 9 9 9 9 9 9
14 17 15 17 16 17 19 18 19 19 19 19 18 18 17 17 17 16 16 16 15 15 14 15 14 13 12 12 12 12 12 11 11 10 10 10 10 9 9 9 8 8 8
16 17 17 18 18 18 18 18 18 18 19 19 19 18 17 17 17 17 16 16 16 16 15 15 15 14 13 13 12 12 12 12 12 11 11 10 10 10 9 9 9 8 8
16 16 17 17 17 17 17 18 18 18 18 18 18 17 14 16 16 16 16 16 16 16 15 15 14 15 14 14 14 13 12 12 12 12 11 11 11 10 10 10 9 9 8
16 16 16 17 17 17 17 17 17 17 17 17 17 17 14 14 15 16 16 16 16 16 16 15 15 15 14 14 14 14 13 13 12 12 12 12 11 11 11 10 9 9 9
16 16 16 16 17 16 16 16 17 16 16 17 16 17 17 17 14 13 15 16 16 16 16 16 15 15 14 14 14 14 13 13 13 13 12 12 12 11 11 10 10 9 9
16 16 16 16 16 16 16 17 16 16 17 16 15 15 16 17 17 16 14 15 15 16 16 15 15 15 14 14 14 14 13 13 13 13 12 12 12 11 11 10 10 10 9
14 15 15 15 16 16 16 16 16 16 17 16 16 15 16 17 17 17 13 15 15 16 16 15 15 15 14 14 14 13 13 13 13 13 12 12 12 11 11 11 9 9 9
13 14 15 14 15 16 16 16 16 16 16 16 15 15 15 16 16 17 16 15 15 16 16 15 15 15 15 14 15 14 13 12 12 12 12 12 11 11 11 10 10 9 8
14 14 14 14 14 16 16 16 15 15 16 16 16 16 15 16 16 16 16 15 12 13 14 14 15 14 14 13 14 14 12 12 12 12 12 11 11 10 10 10 9 9 8
14 14 14 14 15 16 16 16 15 15 15 16 15 16 16 16 16 16 16 15 14 13 13 14 13 13 14 13 13 13 12 12 12 11 11 10 10 10 9 9 8 8 7
14 14 14 14 15 15 16 16 16 15 15 15 15 16 16 16 16 16 15 15 15 13 12 14 14 14 14 13 13 12 12 12 11 11 10 10 9 9 8 8 7 7 6
15 15 14 14 14 15 15 15 15 15 15 16 16 16 15 15 15 15 15 14 13 12 12 13 13 13 13 12 12 12 12 10 10 10 9 9 9 8 8 7 7 6 6
15 15 15 14 14 15 15 15 15 15 15 15 16 16 15 15 15 15 14 14 13 12 12 12 12 12 12 12 11 10 10 9 9 9 8 8 8 7 7 6 6 6 5
15 15 15 15 15 15 15 15 15 15 15 16 16 16 16 16 15 15 13 13 12 12 11 11 12 10 11 11 9 9 9 8 8 8 7 8 7 7 6 5 5 5 6
16 16 15 15 16 15 16 15 15 15 16 16 16 16 16 16 16 15 13 12 12 11 11 11 11 8 8 8 8 7 6 7 7 6 6 7 7 6 6 5 5 4 4
17 17 17 16 16 16 16 16 16 16 16 16 16 16 16 16 16 15 13 12 11 10 10 10 10 7 6 5 6 6 5 4 5 5 5 5 5 5 5 4 4 4 4
16 17 17 17 17 17 17 17 17 17 17 16 16 16 16 16 16 15 14 13 12 11 10 10 9 7 6 5 4 3 3 2 0 1 2 2 3 5 4 4 3 3 3
17 16 16 16 16 16 17 17 17 17 16 16 16 16 16 16 15 14 13 12 11 9 10 9 7 5 3 2 2 1 1 0 -0 -0 -0 1 3 4 3 3 3 3 3
17 16 16 16 16 16 16 16 16 16 16 15 15 15 15 14 13 12 11 9 5 3 4 6 5 3 2 2 2 1 -0 -1 -1 -1 -1 0 2 2 2 2 2 2 2
17 16 16 16 16 16 16 16 16 16 15 14 14 14 13 12 11 11 9 3 0 -1 -0 1 1 0 -0 -0 -1 -1 -1 -2 -2 -1 1 0 1 1 1 1 1 1 1
17 17 17 15 14 15 15 15 16 15 12 10 8 7 6 6 5 5 4 1 -2 -3 -2 -2 -2 -2 -2 -3 -3 -3 -2 -1 -1 -1 -1 -0 -0 -1 -1 0 0 -0 -0

GFSMA_925_temp_075.txt.gz
Temp
14 15 15 15 15 16 16 16 17 17 18 18 18 17 16 16 15 14 13 13 13 12 12 12 11 11 11 10 10 10 10 10 10 9 9 9 9 9 9 9 10 10 9
15 16 16 15 15 16 16 17 17 17 17 17 18 17 17 16 16 14 13 13 13 13 12 12 12 11 11 10 10 10 10 10 10 10 10 10 10 10 10 10 10 10 9
16 17 15 16 16 16 16 16 17 17 17 17 18 16 16 16 16 15 13 13 13 12 12 12 12 11 11 11 10 10 10 10 10 10 10 10 10 10 10 10 10 10 9
16 17 16 16 16 17 17 17 17 17 17 17 18 17 16 16 16 16 14 13 13 13 13 12 12 12 11 11 11 10 10 10 10 10 10 9 9 9 10 9 9 9 9
16 17 16 16 16 17 17 17 18 18 18 17 17 17 17 16 16 15 15 15 14 13 13 13 12 12 12 11 11 11 11 10 10 10 10 9 9 9 9 9 9 9 9
16 16 15 17 17 17 17 17 18 18 18 17 17 17 17 17 16 16 15 15 15 14 14 13 13 12 12 12 12 11 11 11 11 11 10 10 9 9 9 9 8 9 9
15 15 16 16 17 18 18 18 18 18 18 18 17 17 17 17 17 17 16 15 15 15 15 14 14 14 13 12 12 12 12 12 12 11 11 10 10 10 10 9 9 9 8
15 15 15 16 16 17 17 18 18 18 18 18 17 16 14 15 16 16 16 16 16 15 14 14 14 14 14 14 13 12 12 12 13 12 12 11 11 11 10 10 9 9 9
15 15 16 16 16 16 16 17 18 18 18 18 18 17 12 13 14 16 16 16 16 16 16 15 15 15 14 14 14 14 14 13 13 13 12 12 11 11 11 10 10 10 9
15 15 16 16 15 15 16 18 18 18 18 17 16 18 17 16 13 13 15 16 16 16 16 16 16 15 15 15 15 15 14 14 14 13 13 12 12 12 11 11 10 10 10
15 15 16 17 17 17 18 17 17 18 17 17 17 17 17 16 16 14 13 14 15 16 16 16 16 16 15 15 15 14 14 14 14 14 13 13 12 12 11 11 11 11 10
14 15 16 16 17 17 17 17 17 17 17 17 17 16 16 16 15 15 12 13 14 16 16 16 16 16 16 15 15 15 14 14 14 13 13 13 13 12 12 11 11 10 10
14 15 15 16 16 16 16 17 16 16 16 16 15 15 16 16 17 15 16 14 13 16 16 16 16 16 16 15 15 15 14 14 14 13 14 13 13 12 12 11 11 10 10
14 15 15 15 15 15 16 16 17 16 16 16 16 14 15 16 16 16 15 14 12 12 14 16 16 16 15 15 15 15 14 14 14 14 13 13 13 12 12 11 11 10 10
14 14 15 15 15 15 15 16 16 16 15 16 15 15 16 16 16 17 16 15 15 13 13 14 14 15 15 15 15 15 14 14 13 13 13 12 12 12 11 11 10 10 9
14 13 14 14 15 15 15 15 16 16 16 15 15 15 15 15 15 16 16 16 15 14 13 15 14 15 15 14 14 14 14 14 14 13 12 11 11 11 11 10 10 10 9
14 14 14 14 14 14 15 15 14 15 15 15 15 14 15 16 16 15 15 15 14 13 13 14 14 14 13 13 14 14 14 13 12 12 11 10 10 10 10 9 9 8 8
14 14 14 14 14 13 14 14 14 14 14 14 14 14 15 15 16 15 15 14 13 13 12 13 13 13 13 13 13 13 13 12 12 12 10 9 9 9 8 8 7 7 6
14 14 14 14 13 14 14 14 14 14 14 14 14 14 14 14 14 14 14 13 13 13 12 12 13 13 12 12 12 12 12 11 11 11 11 9 8 8 7 6 5 4 4
14 14 14 13 13 13 13 13 14 14 14 14 14 14 14 14 14 14 13 13 13 12 12 12 12 12 11 10 10 10 8 8 8 7 7 8 7 6 5 4 3 2 2
14 14 14 14 14 14 13 13 14 14 14 14 14 14 14 14 14 15 14 14 13 12 12 12 11 11 9 7 8 9 8 7 5 5 5 5 5 4 3 1 -0 -0 2
14 14 14 14 14 14 14 14 14 14 14 14 14 14 14 14 15 15 15 15 15 13 12 12 12 11 11 8 8 7 5 3 2 2 3 1 1 0 0 0 -0 0 2
14 14 15 15 15 14 14 15 15 15 14 14 14 14 14 14 15 15 15 15 15 13 12 11 10 10 9 8 6 4 3 2 0 -0 1 0 0 0 -0 -0 -0 1 2
15 15 15 15 15 15 15 15 15 16 15 15 15 15 15 15 15 15 14 13 10 9 8 8 7 6 5 4 4 4 2 1 -0 -1 -0 -2 -1 -1 -0 -1 -0 1 1
16 15 15 15 15 15 15 15 15 16 15 15 14 14 14 14 14 13 13 9 4 1 1 2 2 2 1 1 1 1 -1 -1 -2 -2 -2 -2 -2 -2 -1 -0 1 0 0
16 15 15 15 15 15 15 15 15 15 14 13 12 11 10 11 11 11 10 4 -1 -3 -2 -1 -1 -1 -1 -2 -1 -1 -2 -3 -3 -3 -4 -4 -3 -2 -2 -1 -0 -1 -1

GFSMA_925_temp_078.txt.gz
Temp
15 15 14 15 15 15 16 17 17 17 17 16 16 16 16 15 14 13 13 13 13 12 12 12 12 11 11 11 10 10 10 10 10 9 9 9 9 9 9 9 9 8 8
14 14 15 15 16 16 17 17 17 17 17 16 16 16 16 15 14 14 13 13 13 12 12 12 12 11 11 11 10 10 10 10 10 10 9 9 9 10 10 10 9 9 9
15 15 15 15 16 16 16 17 17 17 17 16 17 16 16 15 15 14 13 13 13 12 12 12 12 11 11 11 10 10 10 10 10 10 9 9 10 10 10 10 10 10 10
16 15 15 16 16 16 17 17 17 17 17 16 16 15 16 15 14 14 13 13 13 12 12 12 12 11 11 11 11 10 10 10 10 10 9 10 10 10 10 10 10 10 10
15 16 16 16 16 17 16 17 17 17 17 16 16 16 16 15 14 14 14 14 13 13 12 12 12 12 12 11 11 11 11 10 10 10 10 9 10 10 10 10 10 10 10
15 16 15 15 17 16 16 16 17 17 17 17 16 16 16 15 15 15 15 14 14 13 13 13 12 12 12 12 12 11 11 11 11 10 10 10 10 9 9 10 10 10 10
15 16 16 15 15 16 16 16 16 17 17 17 17 14 14 15 15 15 15 15 14 14 14 13 13 13 12 12 12 12 12 12 12 11 11 11 10 10 9 9 9 10 9
15 16 16 16 16 16 16 16 16 16 16 17 16 15 12 13 14 15 15 15 15 15 14 14 14 14 13 13 13 12 12 12 12 12 12 11 11 11 11 10 10 9 9
15 15 15 15 15 16 16 16 17 17 17 16 17 16 12 13 13 15 14 15 15 15 15 15 15 14 14 14 14 14 13 13 13 13 12 12 12 11 11 11 11 10 9
14 14 14 15 16 16 17 17 17 17 17 15 16 17 17 16 12 12 14 15 15 15 15 15 15 15 15 15 15 15 15 14 14 13 13 13 12 12 11 11 11 11 10
14 14 15 15 16 16 17 16 17 16 18 16 16 15 15 16 15 13 12 14 15 16 16 16 16 16 16 15 15 15 15 15 15 14 14 14 13 12 12 12 11 11 11
13 14 15 15 16 16 16 16 15 16 18 18 17 16 16 15 14 14 12 13 14 16 16 16 16 16 16 16 16 16 16 15 15 14 14 14 14 13 13 12 12 12 12
13 14 14 15 16 16 15 15 15 17 17 17 17 17 17 17 17 16 15 14 13 15 16 16 16 16 16 16 16 16 16 15 15 15 14 14 14 14 13 13 12 11 11
13 14 15 15 16 15 15 14 16 17 17 17 17 17 16 16 15 16 15 14 12 12 15 15 16 17 17 17 17 17 16 16 15 15 15 14 13 13 13 13 12 11 11
13 14 15 15 16 16 16 16 16 16 16 16 17 16 16 17 16 15 14 15 15 13 14 15 15 16 16 16 16 16 16 16 15 15 15 14 13 13 12 12 12 12 11
13 14 14 15 15 16 16 16 16 16 16 16 16 16 15 17 17 15 13 15 15 14 13 15 15 15 16 16 16 16 16 15 15 15 15 14 13 12 11 11 11 11 11
13 14 14 14 14 15 15 15 15 15 15 15 16 16 16 16 15 14 14 14 13 13 13 14 14 14 14 14 15 15 14 14 14 14 14 14 13 13 12 10 10 9 8
13 14 14 14 13 14 14 15 14 14 14 13 14 14 15 15 14 14 13 13 13 13 13 13 14 13 13 14 13 13 14 13 13 13 13 13 13 12 11 10 8 8 7
13 13 13 13 13 13 13 14 14 14 14 14 13 13 13 13 13 13 12 12 12 13 12 12 13 13 13 12 12 13 13 13 12 12 12 12 11 11 10 9 8 5 5
13 13 13 13 13 13 13 13 13 13 13 13 13 13 13 13 13 13 12 12 13 13 12 12 12 13 13 13 12 11 11 11 11 10 10 11 10 9 8 7 5 4 3
13 13 13 13 13 12 13 13 12 12 12 12 13 13 13 13 13 14 13 13 12 12 12 12 13 13 13 10 10 11 10 10 9 8 7 6 6 6 5 4 3 2 1
13 13 13 13 13 12 13 13 13 12 12 12 12 12 13 13 13 13 14 14 14 13 12 12 13 13 13 13 11 10 10 6 5 4 5 4 3 3 3 3 1 0 0
13 13 13 13 13 13 13 13 13 13 12 12 12 12 12 12 12 13 13 13 13 14 13 13 13 13 13 13 12 8 7 5 3 2 3 0 1 1 0 0 0 -0 -1
12 12 13 13 13 13 13 13 13 13 13 13 13 13 13 13 13 13 13 12 13 12 11 11 10 9 8 7 7 6 4 2 0 -0 0 -1 -1 -1 -0 -0 -1 -1 -1
13 13 13 13 13 13 13 14 14 13 12 13 13 13 13 13 13 13 12 12 9 5 3 3 3 2 2 2 2 3 0 0 -2 -3 -2 -2 -2 -2 -2 -2 -2 -2 -2
10 13 12 10 9 10 9 11 12 11 11 11 11 12 11 11 11 12 11 9 3 -1 -2 -2 -1 -0 0 -0 0 0 -1 -2 -2 -3 -4 -3 -4 -3 -4 -3 -3 -3 -4

GFSMA_925_temp_084.txt.gz
Temp
15 15 14 15 15 15 16 15 16 16 15 15 15 15 14 13 13 13 13 13 13 13 13 13 12 12 12 12 11 11 11 11 10 10 10 10 10 9 9 9 9 9 9
14 14 14 14 15 15 16 15 16 15 15 15 14 14 14 14 13 13 13 13 13 13 13 13 12 12 12 11 11 11 11 10 10 10 10 9 9 9 9 10 9 9 9
14 14 14 14 16 15 16 15 15 14 15 14 15 14 14 13 13 13 13 13 13 13 13 13 12 12 12 11 11 11 10 10 10 10 9 9 10 9 11 10 9 10 9
14 15 14 14 15 15 15 15 15 14 15 14 14 14 14 13 13 13 13 13 12 12 12 12 12 12 11 11 11 11 10 10 10 10 10 9 10 10 11 11 11 11 10
14 15 14 13 14 15 15 15 15 15 14 14 14 14 14 14 13 13 13 12 12 12 12 12 12 12 12 11 11 11 11 10 10 10 10 9 9 11 10 11 11 10 10
14 14 13 13 14 14 14 15 15 15 15 14 13 13 13 13 13 13 13 12 12 12 12 12 12 11 11 11 11 11 11 11 11 10 10 10 10 9 10 11 11 11 11
14 14 13 13 14 14 13 14 15 15 13 13 12 11 11 12 12 12 13 12 12 12 12 12 12 12 12 12 11 11 12 12 11 11 11 10 10 10 11 11 11 11 11
13 13 13 13 14 13 13 13 14 13 12 13 13 12 10 11 11 12 12 12 13 13 12 13 13 12 12 12 12 12 12 12 12 12 12 12 12 12 12 11 11 11 11
13 12 13 13 13 14 13 13 14 15 13 13 14 14 10 12 11 12 12 12 13 13 13 13 14 13 13 13 13 13 13 13 13 13 13 12 12 12 12 12 12 12 11
12 12 14 14 14 13 13 14 14 15 15 13 14 15 16 15 12 11 12 13 13 13 13 14 14 14 14 14 14 13 14 13 13 13 13 13 13 12 12 12 12 12 11
12 13 14 14 14 14 14 14 14 15 15 14 14 14 15 15 15 12 12 12 12 13 14 14 14 15 15 14 14 15 15 14 14 14 14 14 13 13 13 12 12 12 12
12 12 12 14 14 14 14 14 15 15 16 16 16 15 15 15 14 14 12 12 13 14 16 15 15 15 15 15 15 15 15 15 15 15 15 15 15 14 14 14 13 13 12
12 12 12 12 12 13 14 15 15 16 16 16 16 15 16 16 17 16 15 13 12 14 16 16 16 16 16 16 16 16 16 16 16 16 16 16 16 15 15 15 14 14 13
12 12 12 13 12 12 13 14 15 16 16 16 16 15 15 16 16 17 16 15 12 12 13 16 16 16 17 17 17 17 17 17 16 17 16 16 16 16 15 15 15 14 14
13 12 12 12 12 12 12 13 15 16 15 15 15 15 15 14 15 16 16 17 15 12 13 15 15 16 15 16 16 16 16 17 17 17 17 17 16 16 16 16 15 15 14
13 12 12 12 12 12 13 13 13 15 15 15 14 13 14 14 13 14 16 15 15 14 13 15 15 16 15 14 16 16 16 17 17 17 17 17 16 16 16 15 15 14 14
13 13 12 12 12 13 13 13 14 14 14 15 14 14 13 13 12 13 13 14 13 13 12 13 14 15 15 16 15 15 15 16 16 16 16 16 16 15 15 15 14 14 14
12 12 13 12 13 13 13 14 14 14 14 13 15 12 12 12 13 12 12 13 12 13 13 13 14 14 14 15 14 14 14 15 15 15 16 15 15 14 14 14 14 13 13
12 12 12 13 13 13 14 14 14 14 14 14 14 13 13 12 12 12 13 14 13 13 12 12 13 13 13 13 13 13 13 13 13 14 14 14 14 14 15 14 14 13 13
12 12 12 13 13 13 13 13 13 13 13 13 13 13 13 13 13 13 13 12 12 12 12 11 11 12 12 12 12 11 11 11 11 11 12 13 13 13 13 13 13 12 12
14 13 13 12 13 13 13 13 13 13 13 13 13 13 13 13 13 13 12 12 11 11 11 12 12 12 12 12 11 12 11 11 11 11 11 10 12 11 12 12 12 11 11
14 14 14 14 14 13 13 12 12 12 12 12 12 12 12 12 13 13 13 13 13 13 11 11 12 12 12 12 12 12 12 11 11 11 11 10 9 8 7 7 7 7 7
13 13 13 13 13 13 12 13 14 13 12 12 12 12 11 11 11 12 12 12 12 12 12 12 12 11 11 11 11 11 11 11 11 10 6 4 2 2 1 1 1 1 0
11 12 12 12 12 11 11 11 12 12 11 12 12 11 11 11 11 11 11 10 10 10 8 9 8 7 7 6 8 6 6 7 3 1 1 0 -1 -2 -1 -1 -1 -1 -1
7 8 7 9 8 6 5 8 9 10 10 10 10 10 9 9 9 9 10 9 9 4 0 2 2 0 -0 1 2 3 2 3 0 -3 -2 -2 -3 -3 -3 -3 -3 -3 -2
2 2 1 1 1 1 4 5 6 7 7 7 5 3 2 2 3 5 6 6 4 -0 -0 -0 -0 -1 -1 -0 -0 0 -0 -1 -3 -4 -5 -4 -4 -4 -4 -5 -5 -5 -5

GFSMA_925_temp_087.txt.gz
Temp
15 15 14 15 15 14 15 15 14 14 14 14 14 14 14 13 13 14 14 14 14 14 13 13 13 12 12 12 12 11 11 11 11 11 10 10 10 10 10 10 10 9 9
14 15 14 15 14 15 14 14 14 14 14 14 14 13 13 13 13 14 14 14 14 14 13 13 12 12 12 12 11 11 11 11 11 10 10 10 10 9 9 9 9 9 9
14 14 14 14 14 14 14 14 14 14 13 13 14 13 13 13 13 13 13 14 13 13 14 13 13 12 12 12 11 11 11 11 11 10 10 10 9 10 9 9 9 9 9
14 14 14 14 14 14 13 14 14 13 14 13 13 13 13 13 13 13 13 13 13 13 13 13 13 12 12 12 11 11 11 11 10 10 10 10 10 10 10 9 10 10 10
14 14 14 14 14 14 13 14 14 14 14 14 14 13 13 13 13 13 13 13 13 13 13 13 13 12 12 12 11 11 11 11 10 10 10 10 10 11 10 10 11 11 11
14 14 14 13 13 13 13 14 14 13 14 14 14 13 13 13 13 13 13 12 12 12 12 12 12 12 12 12 11 11 12 11 11 11 10 10 10 10 10 11 11 11 11
14 14 14 14 13 13 13 13 13 13 13 13 13 12 12 12 12 12 12 12 12 12 12 12 12 13 12 12 12 11 12 12 12 11 11 10 10 10 11 10 11 11 12
14 14 13 13 13 12 13 13 14 13 13 13 15 14 14 12 12 12 12 12 12 12 12 12 12 12 12 12 12 12 12 12 12 12 12 12 12 12 11 11 11 11 12
13 14 14 13 12 12 13 13 13 14 13 13 13 16 15 16 14 13 12 12 12 12 12 11 12 13 12 12 12 13 12 12 12 13 12 12 12 12 12 12 12 12 12
13 13 13 13 12 12 12 13 13 14 14 13 13 14 15 15 17 15 12 12 12 12 12 12 12 13 13 12 13 14 14 13 13 13 13 13 13 12 12 12 12 12 12
12 12 12 12 12 12 12 13 13 13 14 14 14 13 14 14 14 15 16 14 12 12 14 12 12 12 14 14 15 14 14 14 14 14 14 14 13 13 13 12 12 12 12
12 12 12 13 12 12 13 13 13 13 14 14 14 15 15 15 15 15 16 15 14 14 13 13 14 13 15 15 15 15 15 15 15 14 14 14 14 14 14 13 13 13 12
11 11 11 12 12 13 13 13 13 14 15 15 14 15 15 16 17 15 16 15 15 14 13 14 15 15 16 15 16 16 16 16 16 15 15 15 15 15 15 15 14 14 14
11 12 12 12 13 13 13 13 14 14 15 15 15 15 15 15 16 16 16 15 15 15 14 15 16 16 17 16 16 16 16 16 16 16 16 16 16 16 16 16 16 15 15
12 13 12 12 12 12 12 13 13 14 14 15 15 15 15 15 16 15 15 15 17 16 16 15 15 16 15 15 15 16 16 16 16 16 16 16 16 16 16 16 16 16 15
12 12 12 13 12 11 11 12 12 13 15 14 13 15 14 15 15 14 14 13 14 15 15 16 15 15 15 14 14 14 15 15 16 16 16 16 16 16 16 16 16 15 15
12 12 12 12 12 12 11 11 11 11 12 13 15 15 14 14 14 14 13 13 12 12 13 13 14 14 15 14 14 16 16 16 16 16 16 16 16 16 16 16 16 15 15
12 12 12 12 12 12 12 11 11 12 12 12 13 14 14 15 13 13 13 13 12 12 12 12 14 14 13 14 14 14 15 14 14 14 15 16 16 15 15 15 15 15 14
12 12 12 12 12 12 12 12 12 12 13 14 13 13 13 13 12 12 12 12 12 12 12 12 13 14 14 14 14 13 13 13 13 13 13 13 14 14 14 14 14 14 14
12 12 12 12 12 12 12 12 12 12 12 13 13 13 13 12 12 12 11 12 12 12 12 11 12 12 13 14 13 13 13 13 12 12 11 11 11 12 12 12 12 12 13
12 12 12 12 12 12 12 12 12 13 13 13 13 13 12 13 13 13 12 13 12 12 12 12 12 13 12 13 13 13 12 12 13 13 12 11 11 11 10 10 10 10 9
12 11 11 12 11 12 13 13 13 13 13 13 12 12 12 12 13 13 13 13 13 13 12 11 12 12 12 12 12 12 12 12 11 12 12 11 9 6 4 4 4 5 5
12 12 12 12 12 10 11 11 12 12 11 12 12 12 12 12 12 12 12 12 12 12 11 10 11 11 11 10 10 10 11 11 11 7 6 3 1 0 -0 -0 -0 1 1
10 10 10 10 9 7 7 10 11 11 11 10 10 10 10 10 10 10 10 10 9 8 8 7 5 3 2 3 4 5 5 4 4 4 3 1 -1 -2 -2 -2 -2 -2 -2
5 4 3 3 3 3 5 6 7 8 8 7 6 6 6 6 6 6 7 6 6 3 1 2 2 1 1 1 2 2 2 2 1 -2 -2 -2 -3 -4 -4 -4 -5 -3 -3
0 0 -0 -0 -0 0 2 4 6 6 5 2 0 -1 -1 1 3 5 5 4 1 -1 -1 -2 -2 -2 -2 -2 -1 -1 -2 -1 -2 -3 -5 -4 -4 -3 -3 -5 -5 -5 -5

GFSMA_925_temp_090.txt.gz
Temp
15 15 17 16 15 15 15 15 15 16 16 17 17 17 17 18 18 18 17 15 14 14 13 13 13 13 13 13 12 12 11 11 11 11 11 11 11 10 10 10 10 10 10
16 15 16 15 15 15 15 15 15 15 16 17 17 17 17 17 16 17 17 14 14 14 14 13 13 13 13 13 12 12 12 11 11 11 11 10 10 10 10 10 10 10 9
15 15 15 15 14 14 15 15 15 16 17 17 17 17 17 16 16 16 16 14 14 14 14 14 13 13 13 13 12 12 11 11 11 11 11 10 10 10 10 10 10 10 9
14 15 14 15 14 14 14 15 15 16 17 17 17 17 17 16 16 16 16 14 14 14 13 13 13 13 13 13 12 12 11 11 11 11 10 10 10 10 10 10 10 9 9
14 14 14 14 14 14 14 14 15 16 17 17 17 17 17 17 16 16 16 16 15 14 14 13 13 13 13 13 12 12 12 11 11 11 10 10 10 10 10 10 11 11 9
14 14 14 14 14 13 14 14 15 16 17 17 17 17 16 16 16 16 16 16 16 15 14 13 13 13 13 12 12 12 12 12 11 11 11 10 10 10 10 11 11 11 11
14 14 14 14 13 13 13 14 15 16 17 17 17 16 15 15 15 16 16 16 16 15 15 15 14 14 13 12 12 12 12 12 12 12 11 11 10 10 10 11 11 11 12
14 14 14 13 13 13 13 14 15 16 17 16 16 16 15 14 14 15 16 16 15 15 15 15 15 15 15 14 12 12 12 12 12 12 12 11 12 12 12 12 12 12 12
14 14 14 13 13 13 13 14 15 16 16 16 17 18 17 18 17 15 15 16 15 15 15 15 15 15 14 15 14 13 13 13 12 13 13 12 12 12 12 12 12 12 12
13 14 13 13 13 13 13 14 15 16 16 16 16 18 18 20 19 17 16 15 15 15 15 15 15 14 14 14 13 14 14 14 14 13 13 13 12 12 12 12 12 12 12
13 13 13 13 13 13 13 14 15 16 16 16 17 17 17 18 19 20 19 17 16 16 16 15 15 14 13 13 14 14 13 13 15 14 14 14 13 13 13 13 12 12 12
13 13 13 13 13 13 13 14 14 16 15 16 16 17 17 18 18 19 20 19 18 17 16 16 14 14 15 14 14 14 13 14 15 15 14 14 14 14 13 13 13 13 13
12 12 12 12 12 13 13 13 14 15 15 16 16 16 17 17 19 19 19 20 19 18 16 16 15 15 14 14 14 14 14 14 15 15 15 15 15 14 14 14 14 14 14
11 11 11 12 11 12 12 13 13 13 14 14 15 16 16 16 17 17 18 18 18 18 17 17 15 14 15 14 14 15 16 15 15 16 16 16 16 15 15 15 15 15 15
11 11 11 11 11 12 12 12 12 13 13 14 14 15 15 15 16 17 17 17 18 17 19 18 17 15 14 14 16 15 15 15 16 15 15 15 16 16 16 16 16 16 16
11 11 12 11 11 12 13 13 13 12 13 13 13 14 16 15 16 15 15 15 15 16 17 18 18 17 15 16 16 16 16 16 15 16 16 16 16 16 16 16 16 16 15
12 12 12 12 11 12 12 12 11 11 12 12 13 13 14 14 14 14 14 15 14 14 14 15 16 16 15 14 15 15 16 16 16 16 16 16 16 17 17 17 16 16 16
12 12 13 11 11 11 12 11 11 11 12 12 14 12 13 13 13 14 14 14 13 12 12 12 13 14 13 14 15 14 15 15 14 14 15 16 16 17 17 16 15 15 15
12 12 12 12 12 11 11 12 11 11 12 12 13 12 13 12 13 13 13 12 12 12 12 12 13 14 15 15 15 15 15 14 15 15 15 15 15 14 14 14 13 13 13
14 13 13 12 12 12 12 11 11 11 11 12 12 12 12 13 14 14 12 13 12 12 13 12 12 13 14 14 15 15 15 16 15 15 15 15 14 14 13 12 11 11 11
13 14 14 14 13 13 12 12 12 12 11 12 13 13 13 12 14 13 13 12 13 13 13 14 14 14 14 14 15 15 14 14 14 14 14 13 12 11 10 9 8 8 9
12 12 13 14 14 14 13 13 14 13 13 13 13 13 12 12 13 13 13 13 14 14 14 13 13 12 12 12 13 13 12 12 12 11 8 9 7 6 4 3 1 3 4
13 13 12 13 11 10 11 12 12 12 12 12 12 12 13 13 12 12 12 12 11 11 11 10 9 9 8 7 7 8 8 7 5 6 5 5 3 1 -1 -1 -1 -1 -1
10 9 9 8 7 6 7 10 11 11 10 9 9 9 9 9 10 10 10 9 8 7 7 6 5 3 3 3 4 4 3 3 3 1 1 2 -1 -3 -4 -4 -3 -3 -2
2 2 2 3 3 3 6 7 8 8 7 5 4 4 4 4 5 5 6 5 3 1 -1 -0 -1 -1 -1 -0 2 2 1 1 1 -3 -2 -2 -3 -4 -4 -4 -4 -4 -4
-1 -1 -1 -1 -1 -0 2 5 5 5 2 -0 -1 -0 -0 0 3 4 4 3 -1 -3 -2 -2 -1 -2 -1 -1 -1 -1 -2 -2 -1 -2 -5 -3 -3 -3 -2 -4 -4 -5 -5

GFSMA_925_temp_093.txt.gz
Temp
17 18 17 17 15 15 15 15 15 15 16 16 17 18 18 19 19 17 15 15 15 15 14 14 14 14 13 13 13 13 12 12 12 11 11 11 11 11 11 11 11 10 10
17 17 17 16 15 15 15 15 14 15 15 16 17 17 18 19 19 20 17 15 15 15 14 14 14 13 13 13 13 12 12 12 12 11 11 11 11 11 11 10 10 10 10
17 17 16 16 15 16 15 15 14 14 15 16 18 19 19 19 18 19 17 16 14 14 15 14 13 13 13 13 13 12 12 12 12 11 11 11 11 10 10 10 10 10 10
16 15 16 15 15 15 15 15 14 14 15 17 19 18 19 19 18 18 17 16 15 14 14 14 14 14 13 13 13 12 12 11 11 11 11 11 10 10 10 10 10 10 10
15 15 15 15 15 15 15 14 14 15 15 17 18 19 19 18 18 18 17 16 15 15 15 14 14 14 13 13 13 12 12 12 11 11 11 10 10 10 10 11 10 10 10
15 15 15 15 15 14 14 14 14 14 16 18 19 19 19 19 18 18 18 16 15 15 15 14 13 13 14 13 13 12 12 12 12 11 11 11 10 10 11 11 11 11 12
15 15 15 15 14 14 14 14 14 14 16 19 18 18 18 17 18 18 18 18 17 16 15 15 15 14 13 13 13 12 12 13 12 12 11 11 11 11 11 11 12 12 12
14 14 14 14 14 14 14 13 14 14 15 18 18 17 16 15 16 18 18 18 18 17 17 16 16 16 16 13 12 12 12 13 13 12 12 12 11 11 11 12 12 12 12
14 14 14 14 14 14 13 13 14 14 15 16 17 18 17 16 16 16 17 18 18 17 17 17 17 17 16 16 15 13 13 13 13 13 13 13 13 13 12 12 13 12 12
14 14 14 14 13 13 13 14 14 14 16 17 17 18 19 20 18 16 16 18 17 17 17 17 17 16 16 16 16 15 14 13 13 13 13 13 13 13 13 13 13 13 13
14 14 14 14 13 13 13 13 14 15 16 17 17 18 19 20 19 20 18 18 18 18 17 16 17 16 16 16 15 15 14 14 14 15 13 13 13 13 13 13 13 13 13
14 14 14 13 13 13 13 13 14 15 16 17 18 18 19 19 20 20 21 20 19 18 18 17 16 17 16 15 15 15 15 14 14 14 14 14 13 14 14 14 13 13 13
13 13 13 13 13 13 13 13 14 15 16 16 17 18 18 19 20 20 21 21 20 20 19 18 17 16 16 15 15 15 15 15 14 14 14 15 14 14 14 14 14 14 13
13 13 13 13 13 13 13 14 14 14 15 16 16 16 17 18 18 19 20 20 19 19 20 19 17 16 16 15 15 15 15 14 15 15 15 15 15 15 15 15 15 15 14
12 12 13 13 13 13 13 13 14 14 15 15 15 16 16 17 17 18 18 19 19 19 19 18 18 16 16 15 15 15 15 15 16 16 17 17 16 16 16 16 16 16 15
11 11 12 12 12 13 13 13 13 14 14 14 14 15 15 16 16 16 17 16 17 17 18 18 18 17 16 16 15 15 15 15 15 16 16 17 16 17 17 17 16 16 16
11 11 11 11 12 12 12 12 13 13 13 12 14 14 14 15 16 16 15 16 15 15 16 16 16 16 16 15 15 14 15 15 15 16 16 17 16 17 16 16 16 16 15
11 11 11 12 11 11 12 12 12 12 13 13 12 12 13 14 14 15 14 14 14 13 13 13 14 14 14 15 15 15 15 15 15 15 16 16 16 16 16 16 15 15 15
11 11 11 11 10 11 11 11 12 12 11 11 11 13 14 14 14 13 13 13 14 14 13 12 13 13 14 15 15 14 14 14 16 16 16 16 16 15 15 14 14 14 13
12 12 12 12 11 11 11 11 12 11 11 10 12 13 15 14 14 14 12 14 14 13 13 13 12 12 13 14 14 15 15 15 15 15 15 15 14 13 13 12 12 12 12
13 12 12 12 12 12 12 12 12 11 11 11 12 13 13 13 13 13 12 13 13 12 13 13 13 13 14 14 15 15 15 14 14 14 14 13 11 9 7 6 6 6 5
14 14 14 14 13 11 12 12 12 11 11 12 11 12 13 13 13 13 13 13 13 13 13 12 12 12 13 13 12 11 10 10 10 9 8 7 7 6 4 3 1 1 1
13 13 12 10 10 9 11 12 12 12 12 12 12 12 12 12 12 12 12 12 11 11 10 9 9 8 7 7 6 7 6 5 5 5 4 4 2 2 -0 -1 -2 -1 -1
8 8 7 7 7 8 11 12 12 11 10 10 9 9 9 10 10 10 9 8 6 5 5 6 5 2 1 2 4 3 3 2 2 1 2 1 -1 -2 -3 -2 -2 -2 -1
4 2 2 2 3 4 6 8 10 9 7 5 4 4 5 5 5 6 5 4 1 -0 -0 0 0 -0 -0 2 2 1 0 1 1 -2 -2 -2 -3 -3 -3 -3 -3 -3 -3
-1 -1 -1 -1 -1 0 2 4 5 4 2 0 -0 -0 -0 2 4 4 3 2 -1 -3 -2 -2 -2 -2 -1 -2 -1 -2 -2 -0 -0 -0 -4 -3 -2 -2 -1 -3 -3 -4 -4

GFSMA_925_temp_096.txt.gz
Temp
19 18 17 16 16 16 16 15 15 16 16 17 16 18 18 18 17 16 15 15 15 15 14 14 14 13 13 13 13 13 12 12 12 12 12 12 11 11 11 11 11 10 10
18 17 17 17 16 16 15 15 15 15 15 15 16 18 17 18 17 16 15 15 15 15 14 14 14 14 13 13 13 12 12 12 12 11 11 11 11 11 11 11 11 11 10
18 17 17 16 16 16 15 15 15 15 14 15 15 17 18 18 18 16 15 15 15 15 14 14 14 13 13 13 13 12 12 12 11 12 11 11 11 11 11 11 11 11 10
18 17 17 16 16 15 15 14 15 14 14 14 15 16 18 19 19 16 15 15 14 14 15 14 14 14 13 13 13 12 12 12 12 11 11 11 11 11 11 11 11 10 10
17 17 16 16 15 16 15 15 14 14 14 14 15 15 18 19 18 17 16 15 15 14 14 14 14 14 14 13 13 12 12 12 11 11 11 11 11 11 11 11 11 11 11
17 17 16 16 15 16 15 15 14 14 14 14 14 16 18 18 18 18 17 15 15 14 14 14 14 14 14 14 13 13 12 12 12 12 11 11 11 11 11 12 12 12 12
16 16 16 15 15 14 15 14 14 14 14 14 14 17 18 18 18 17 16 16 15 15 14 14 14 14 14 13 13 13 13 13 12 12 12 11 11 11 11 11 12 13 13
16 15 15 15 15 14 14 14 14 14 14 14 14 17 14 16 17 18 17 16 15 15 15 15 15 14 14 14 13 13 12 13 13 12 12 12 12 12 12 12 12 13 13
15 15 15 15 15 14 14 14 14 14 14 13 14 17 14 14 16 17 18 18 17 15 16 16 15 15 15 15 15 14 13 13 13 13 13 12 12 12 12 13 13 13 13
14 14 14 14 14 14 14 14 14 14 14 14 15 17 18 17 15 14 16 18 18 17 17 17 16 16 16 16 15 15 15 15 13 13 13 13 13 13 13 13 13 13 13
14 14 14 14 14 14 14 14 13 13 13 14 14 17 18 17 17 16 14 16 17 17 17 17 17 17 16 16 16 15 16 15 15 14 14 13 13 13 13 13 13 13 13
15 14 14 14 14 14 14 14 14 13 13 14 15 17 18 17 16 16 15 15 16 17 17 17 17 17 16 16 16 16 15 15 15 14 14 14 14 14 13 13 13 13 13
14 14 14 14 13 14 13 13 13 14 13 14 15 16 17 18 18 18 18 16 16 17 17 17 17 17 17 16 16 16 15 15 15 15 14 15 14 14 14 14 14 14 14
14 14 14 14 14 13 13 13 13 13 13 14 15 16 18 19 19 20 19 18 15 16 18 18 17 17 17 17 16 16 15 15 15 15 15 15 15 15 15 16 16 16 15
13 13 14 13 13 13 13 13 13 13 13 14 15 16 18 18 18 19 18 19 18 15 16 18 17 17 17 16 16 15 15 15 15 15 15 15 15 15 15 15 16 16 17
13 13 13 13 13 13 13 13 13 13 13 14 15 15 17 17 18 18 17 18 17 17 15 18 18 17 17 16 16 15 15 15 15 15 15 16 16 16 16 16 16 16 16
12 12 12 13 13 13 13 13 13 13 13 13 15 16 16 16 16 16 17 17 16 16 14 16 17 16 16 16 15 15 16 16 16 16 16 16 16 16 16 15 15 15 16
12 11 12 12 12 13 13 13 13 13 13 14 14 15 15 15 15 15 15 16 16 16 15 14 15 16 15 15 15 14 14 15 15 15 16 16 15 15 15 14 15 14 15
11 11 11 12 12 12 12 12 13 13 13 13 13 14 14 13 14 15 15 15 15 15 15 14 14 14 14 14 14 14 14 14 14 14 15 14 14 14 14 14 14 14 14
11 11 11 12 12 12 12 12 12 13 13 13 13 12 12 12 13 14 14 14 13 13 13 13 12 13 13 14 13 13 13 14 14 14 14 13 12 11 11 10 11 11 10
12 11 11 11 12 11 11 11 11 11 11 11 11 11 11 13 14 14 14 13 12 12 12 11 12 13 13 13 13 13 13 13 12 12 9 9 9 7 7 6 4 4 4
12 12 12 12 11 10 10 11 11 11 11 11 11 11 11 13 13 13 13 13 12 12 12 12 13 13 12 11 10 9 8 8 8 8 7 6 5 5 3 2 2 1 1
11 10 9 10 8 8 9 11 11 11 11 11 11 11 11 12 12 12 12 12 12 11 11 10 10 8 7 6 6 6 5 5 5 5 4 3 2 2 0 -1 -1 -1 -1
7 7 6 5 6 6 8 10 11 11 9 8 8 8 8 8 8 8 9 8 6 5 5 6 6 3 2 3 3 4 3 2 1 1 1 0 -1 -1 -1 -2 -2 -2 -3
2 1 1 2 2 3 6 7 9 8 6 3 3 3 4 5 5 5 6 4 1 0 0 1 0 -0 -0 2 2 1 1 1 -0 -2 -2 -2 -2 -3 -2 -3 -3 -4 -4
-1 -1 -2 -1 -1 -0 1 4 4 3 1 -0 -0 0 1 3 3 3 4 2 -1 -2 -1 -1 -2 -2 -1 -1 -0 -0 -0 -0 -1 -2 -4 -2 -1 -2 -1 -2 -2 -2 -2

GFSMA_925_temp_099.txt.gz
Temp
19 19 18 18 18 17 17 16 16 16 16 17 17 17 18 17 17 17 16 16 15 15 14 14 14 13 13 13 13 13 12 12 12 11 12 12 11 11 11 11 11 11 11
19 19 18 18 17 17 17 16 16 15 16 16 16 17 16 17 17 17 15 15 15 15 14 14 14 14 13 13 13 12 12 12 12 11 11 12 11 11 11 11 11 11 10
19 18 17 17 17 17 16 16 15 15 15 15 15 15 16 16 17 16 16 15 15 15 14 14 14 13 14 13 13 12 12 12 12 11 11 11 11 11 11 11 11 11 11
19 18 17 16 17 16 15 15 15 15 14 14 14 15 16 15 16 16 15 15 15 14 14 14 14 14 13 13 12 12 12 12 12 11 11 11 11 11 11 11 11 12 11
18 18 17 16 16 16 15 14 14 14 13 14 14 14 15 14 15 16 15 15 14 14 14 14 14 14 13 13 13 12 12 12 12 11 11 11 11 11 11 11 11 11 11
18 18 17 16 16 15 15 14 14 14 14 14 14 14 15 14 15 16 15 15 14 14 14 14 14 14 14 13 13 13 13 12 12 12 11 11 11 11 11 11 11 11 11
18 17 17 16 16 15 15 14 14 14 14 14 13 14 14 14 15 15 16 15 15 15 14 14 14 14 14 14 13 13 13 13 12 12 12 11 11 11 11 12 12 13 13
17 17 17 16 16 15 14 14 14 14 14 14 14 14 13 14 15 15 15 15 15 14 14 14 14 14 14 13 13 13 13 13 13 12 12 12 12 11 12 12 12 12 13
17 16 16 16 15 15 14 14 14 14 14 13 14 15 14 14 15 15 16 16 15 15 14 15 15 14 14 14 14 14 13 13 13 13 13 12 12 12 12 12 12 13 13
17 16 16 15 15 15 14 14 14 14 14 13 13 14 17 17 15 14 15 15 15 15 15 15 15 15 15 14 14 14 14 13 13 13 13 13 13 13 13 13 13 13 13
16 16 15 15 14 14 14 15 14 14 14 14 14 14 15 17 16 16 14 14 14 15 15 15 15 15 15 15 15 15 15 15 14 14 13 13 13 13 13 13 13 13 13
16 15 15 14 14 14 14 14 14 13 13 13 14 14 16 16 15 16 14 15 15 15 16 16 16 16 16 16 15 16 16 15 15 15 14 14 13 13 13 13 13 13 14
14 14 14 14 14 14 14 14 14 13 13 13 13 14 15 16 16 16 16 15 14 15 16 17 17 17 16 16 16 16 16 16 15 15 15 15 14 14 14 14 14 14 14
14 14 14 15 14 14 14 14 14 14 13 13 13 13 14 16 17 17 16 15 14 14 16 17 17 17 17 17 16 16 16 16 15 15 15 15 14 14 14 14 14 15 14
15 15 14 14 14 14 14 13 13 13 13 13 13 13 14 14 17 17 17 17 16 15 15 16 17 17 17 17 16 16 16 16 16 15 15 15 15 15 14 15 15 15 15
14 14 13 13 13 13 13 13 13 13 13 13 13 13 14 14 17 18 18 18 17 16 14 17 17 17 17 17 17 16 16 16 16 15 16 16 15 15 15 15 15 15 15
13 13 13 13 13 13 13 13 13 13 13 13 13 13 13 14 16 17 17 17 17 17 15 16 16 17 17 16 16 16 16 16 16 16 16 16 16 16 16 15 14 14 14
12 12 11 12 12 13 13 13 13 13 13 13 13 13 13 14 14 16 17 17 16 16 16 15 16 16 16 16 16 16 15 15 15 15 15 15 15 15 14 14 14 14 13
12 12 11 12 12 13 13 13 13 13 13 13 13 13 13 13 14 16 16 16 16 16 15 15 16 16 16 15 15 15 15 15 14 13 13 13 13 13 13 13 13 12 10
12 11 11 11 12 12 13 13 13 13 13 12 13 13 13 14 15 15 15 15 15 15 15 14 14 14 14 15 14 14 14 13 13 12 12 11 10 9 9 8 8 8 7
11 11 11 11 11 11 11 12 12 12 12 12 13 13 12 12 13 13 13 13 14 14 13 13 12 12 12 12 12 13 12 12 10 9 8 7 7 7 5 4 4 4 4
11 11 11 11 11 11 11 11 12 12 12 12 12 12 12 12 12 11 11 12 13 13 12 12 11 11 11 11 11 10 10 9 8 7 6 5 4 4 3 2 1 0 0
10 10 9 10 9 9 10 10 11 11 12 11 11 11 10 10 10 10 11 12 12 12 12 11 11 10 8 8 8 7 6 7 6 4 3 2 0 1 -1 -1 -1 -1 -1
5 5 5 5 6 7 8 10 10 10 9 8 8 9 9 9 9 10 9 9 7 7 7 8 8 6 4 4 5 4 4 3 2 1 1 -0 -1 -2 -2 -2 -3 -3 -3
1 1 1 2 3 3 5 7 9 7 5 3 3 5 5 5 6 6 6 4 1 -0 0 2 1 1 1 2 2 2 1 1 -1 -3 -2 -1 -2 -2 -2 -3 -2 -2 -2
-3 -2 -2 -2 -1 0 2 3 5 3 1 -0 0 1 3 3 3 4 4 2 -1 -2 -2 -1 -1 -1 -0 -0 0 0 0 0 -1 -3 -3 -2 -2 -2 -2 -2 -1 -2 -2

GFSMA_925_temp_102.txt.gz
Temp
19 19 19 19 18 18 18 17 17 17 17 17 17 17 16 17 18 18 16 16 16 16 15 14 14 14 13 13 13 13 12 12 12 12 11 12 11 11 11 11 11 11 11
19 19 19 18 18 18 18 17 17 17 16 16 16 16 16 17 17 17 16 15 15 15 14 14 14 13 13 13 13 13 12 12 12 12 12 11 11 11 11 11 11 11 11
19 19 18 18 18 18 17 17 17 17 17 16 16 16 16 16 16 16 16 15 15 15 14 14 14 14 13 13 13 12 12 12 12 11 11 11 11 11 11 11 11 11 11
19 19 18 18 18 17 17 16 16 16 16 15 15 15 14 15 16 14 15 15 15 14 14 14 14 14 14 13 13 12 12 12 12 11 11 11 11 11 11 11 11 11 11
19 19 18 18 17 16 15 15 14 15 14 14 15 15 15 14 15 14 15 15 15 14 14 14 14 14 14 13 13 12 12 12 12 11 11 11 11 11 11 11 11 11 11
19 18 18 17 17 15 15 15 14 14 14 14 14 14 14 14 14 14 14 15 15 14 14 14 14 14 13 13 13 13 12 12 12 12 11 11 11 11 10 11 11 11 11
18 18 17 16 16 15 15 15 14 14 14 14 14 14 13 14 14 13 14 15 14 14 14 14 14 14 14 14 13 13 13 13 12 12 12 11 11 11 11 11 11 11 12
18 18 17 16 16 15 15 15 14 14 14 14 14 14 13 13 13 13 13 14 15 14 14 14 14 14 14 14 13 13 13 13 13 13 12 12 11 11 11 11 12 12 13
18 18 17 17 16 16 15 15 15 14 14 14 14 14 13 13 13 12 13 13 14 14 14 14 14 14 14 14 13 13 13 13 13 13 12 12 12 12 12 12 12 13 13
18 17 17 16 16 16 15 14 14 14 14 14 13 14 14 14 14 13 12 12 13 14 14 14 14 14 14 14 14 13 13 13 13 13 13 13 12 12 12 12 12 12 13
17 17 17 16 16 15 15 14 14 14 14 14 14 13 14 15 16 15 13 12 12 13 14 14 14 14 14 14 14 14 14 13 13 13 13 13 12 13 12 12 13 13 13
17 17 16 16 15 15 14 14 14 14 14 14 13 13 14 15 15 15 14 14 13 13 13 14 14 14 14 14 15 15 15 14 14 14 13 13 13 13 13 13 13 13 13
15 15 15 15 15 15 14 14 14 14 13 13 13 13 14 15 16 16 16 15 14 13 13 14 15 15 15 15 15 15 15 15 15 15 14 14 14 14 14 13 13 13 13
15 16 15 15 15 14 14 14 14 14 13 13 13 13 14 15 15 16 16 15 12 12 13 14 14 15 15 16 16 16 15 15 15 15 15 15 15 15 14 14 14 14 14
15 14 14 14 14 14 14 14 14 14 13 13 13 13 13 14 15 16 16 16 16 14 13 14 16 16 16 16 16 16 16 16 16 16 15 15 15 15 15 15 14 14 14
15 14 14 14 14 14 14 14 13 14 13 13 13 13 13 13 15 16 15 16 16 16 14 16 16 17 17 17 16 16 16 16 16 15 15 15 15 15 15 15 15 14 15
15 14 14 13 13 13 14 14 14 13 13 13 13 13 13 13 13 15 14 16 16 16 14 14 16 17 17 17 17 17 16 16 16 16 16 16 16 15 14 15 15 14 14
13 13 13 13 13 13 13 13 13 13 13 13 13 13 13 13 13 13 15 16 15 15 16 14 15 16 16 16 17 16 17 16 16 16 16 15 15 15 15 14 14 14 13
13 12 12 12 12 12 12 12 13 13 13 13 13 13 13 13 12 13 13 14 14 14 16 15 15 15 15 16 14 16 16 16 14 14 14 14 14 13 13 13 12 10 10
12 12 12 12 11 12 12 13 13 13 13 13 13 13 13 13 12 12 13 13 14 14 15 15 15 14 14 14 14 14 14 14 12 12 11 10 10 9 8 7 8 7 6
12 11 11 11 11 11 11 12 13 13 13 13 13 13 12 12 12 13 13 13 13 12 13 13 13 13 13 12 12 13 13 12 10 9 7 6 5 5 4 4 3 3 3
11 11 11 11 11 11 11 11 12 12 12 12 12 12 12 12 12 12 12 12 12 12 13 13 12 12 11 12 13 13 12 10 7 6 5 3 3 2 2 2 2 1 1
9 9 9 8 9 9 11 11 11 11 10 11 11 11 11 11 11 11 11 12 11 12 12 12 12 11 11 11 11 9 9 8 5 3 4 1 0 0 -0 -0 -0 -1 -1
4 3 4 4 5 6 8 9 10 10 10 9 10 10 11 10 11 11 9 8 7 8 9 10 10 9 9 8 8 7 6 5 2 1 2 -1 -2 -2 -2 -2 -1 -1 -2
0 -0 -0 1 2 2 3 5 9 8 7 6 6 7 8 9 8 8 8 5 3 1 1 4 4 3 3 4 3 4 3 2 -1 -2 -0 -1 -2 -2 -3 -2 -2 -2 -2
-2 -2 -2 -2 -1 -1 1 2 3 2 2 1 2 2 3 4 3 3 5 4 1 -1 0 0 -0 1 1 1 1 1 2 1 -1 -3 -2 -2 -2 -2 -3 -2 -2 -2 -2

GFSMA_925_temp_105.txt.gz
Temp
18 19 18 18 18 18 18 18 18 17 17 17 17 17 17 17 17 17 17 17 17 17 15 15 14 14 14 13 13 13 13 13 12 12 12 11 11 11 11 11 11 11 11
18 18 18 18 18 18 18 18 18 18 17 17 17 17 17 17 17 16 17 17 17 16 15 15 14 14 13 13 13 13 12 12 12 12 12 11 11 11 11 11 11 10 10
18 18 18 18 18 18 18 17 17 17 17 17 16 17 16 16 16 16 16 17 16 15 15 15 15 14 14 13 13 13 12 12 12 12 12 11 11 11 11 11 10 10 10
18 18 18 17 17 17 17 17 17 16 16 16 16 16 15 15 15 15 16 16 16 15 15 14 14 14 14 13 13 13 12 12 12 12 12 11 11 11 11 11 11 11 11
17 17 18 17 16 16 16 16 16 16 15 15 15 15 15 15 15 15 15 15 15 15 14 14 14 14 14 14 13 13 12 12 12 12 12 11 11 11 11 11 11 11 11
18 17 17 17 16 16 15 15 15 15 15 15 14 14 14 14 14 14 14 14 15 14 14 14 14 14 14 14 14 13 13 12 12 12 12 11 11 11 11 11 11 11 12
18 17 17 16 16 16 15 15 15 14 14 14 14 14 13 14 14 14 14 14 14 14 14 14 14 14 14 13 13 13 13 13 12 12 12 11 11 11 11 11 11 11 11
18 17 17 16 15 15 15 15 15 14 14 14 14 14 13 13 13 13 14 14 14 14 14 14 14 14 13 13 13 13 13 13 13 13 12 12 11 11 11 11 11 11 11
18 18 17 17 16 15 15 15 15 14 14 14 14 14 13 14 12 13 13 13 13 13 14 14 14 14 14 13 13 13 13 13 13 13 13 12 11 11 11 11 11 12 12
18 18 17 17 17 16 15 15 15 14 14 14 14 14 14 13 13 12 12 12 12 13 13 14 14 14 14 13 13 13 13 13 13 13 13 13 12 12 12 12 12 12 12
17 19 17 16 16 15 15 15 15 14 14 14 14 13 13 13 13 13 13 12 12 12 13 14 14 14 14 14 13 13 13 13 13 13 13 13 13 13 12 12 12 12 13
16 18 18 17 17 16 15 15 15 14 14 14 14 14 14 14 13 14 13 13 13 12 12 13 13 14 14 14 14 14 14 13 13 13 13 13 13 13 12 12 12 13 13
16 16 16 16 16 16 15 15 14 14 14 14 14 14 14 14 15 15 15 13 13 12 12 12 13 14 14 14 14 14 14 14 14 14 13 13 13 13 13 13 13 13 13
15 15 17 17 15 15 15 15 14 14 14 14 14 13 13 13 14 15 14 14 12 11 12 13 13 13 14 14 15 15 15 14 14 14 14 14 14 14 14 13 13 13 13
15 16 16 15 15 15 15 14 14 14 14 14 13 13 13 13 14 13 14 14 14 13 12 12 14 15 15 15 15 15 15 15 15 15 15 15 15 14 14 14 14 14 14
16 16 15 15 14 14 14 14 14 14 13 13 13 13 13 13 13 14 14 15 15 15 14 15 15 16 16 15 16 15 16 16 16 15 15 15 15 15 15 14 14 14 14
15 15 15 14 14 13 14 14 14 13 13 13 13 13 13 13 12 13 14 13 14 15 13 14 16 15 16 16 16 15 16 16 16 15 16 15 15 15 14 14 14 13 14
14 14 14 14 13 13 13 13 13 13 13 13 13 13 13 13 12 12 12 12 13 15 16 13 14 14 15 16 16 15 16 15 14 15 14 14 14 14 14 14 14 13 13
14 13 13 13 12 12 12 12 12 13 13 13 13 13 13 13 12 12 12 12 13 13 15 15 13 14 14 14 13 13 14 13 13 13 14 14 14 14 14 14 14 13 12
13 12 12 12 12 12 11 11 11 12 12 13 13 13 13 13 13 12 12 12 13 12 12 14 14 13 14 13 14 14 13 12 12 11 12 12 13 12 12 11 10 9 8
12 12 12 11 11 11 11 11 11 12 13 13 13 13 13 13 13 12 12 12 12 12 12 12 12 12 12 12 13 13 13 11 10 10 8 8 7 6 6 5 5 5 4
11 11 11 11 10 10 10 11 11 11 12 13 13 13 13 13 13 12 12 12 12 12 11 11 11 11 12 12 13 12 11 9 6 7 7 5 3 3 3 2 2 1 1
9 9 8 8 8 8 9 10 10 11 11 11 11 12 12 12 12 12 12 12 11 12 12 11 11 11 11 12 12 11 11 10 8 6 5 1 1 1 -0 0 -0 -1 -1
2 3 4 4 4 5 6 8 9 10 9 9 8 8 10 9 11 10 10 10 10 10 10 11 11 11 11 11 11 12 11 8 4 2 3 -1 -1 -1 -2 -1 -2 -2 -2
-2 -1 -1 1 2 2 3 5 7 7 6 5 5 6 6 8 7 11 11 8 5 4 4 6 8 7 8 8 7 8 7 5 -1 -1 0 -0 -2 -2 -2 -3 -3 -3 -3
-3 -3 -3 -2 -2 -1 -0 2 3 3 2 1 1 2 3 4 5 7 8 6 1 -1 0 1 1 1 2 1 2 3 3 2 -1 -2 -2 -1 -2 -2 -3 -3 -3 -3 -3

GFSMA_925_temp_111.txt.gz
Temp
18 18 18 17 18 17 17 17 17 16 16 16 16 16 16 16 16 16 17 18 17 16 16 16 15 14 14 14 14 13 13 13 13 13 13 12 12 12 12 12 11 11 11
18 18 17 18 17 17 18 17 17 17 16 16 16 16 16 16 16 17 17 18 17 17 16 16 15 14 14 13 14 14 13 13 13 13 12 12 12 12 12 11 11 11 11
17 18 17 17 18 18 18 17 17 17 16 16 16 16 16 16 16 16 17 17 17 17 16 15 15 15 14 14 14 13 13 13 13 13 12 12 12 12 11 11 11 11 11
17 17 17 17 17 18 17 17 16 16 16 16 16 15 15 15 15 16 17 17 17 16 15 15 15 15 15 14 13 13 13 13 13 13 13 12 12 11 11 12 11 10 11
18 17 16 16 17 17 17 17 15 16 16 15 15 15 15 15 16 15 16 16 16 16 15 14 15 15 15 15 14 13 13 13 13 13 13 12 12 11 11 11 11 11 11
16 16 16 16 16 16 16 16 16 15 15 16 15 15 15 16 15 15 16 16 16 15 14 14 14 15 15 15 14 14 13 13 13 13 13 13 12 11 11 11 11 11 11
16 16 16 16 16 16 16 16 16 15 14 15 14 14 14 14 14 15 15 15 15 14 14 15 14 15 14 14 14 14 13 13 13 12 13 13 12 11 11 11 11 11 10
16 16 16 16 16 16 16 16 15 15 15 14 15 15 15 15 14 14 14 14 14 14 14 14 14 14 14 14 14 14 14 13 13 13 13 13 13 12 11 11 11 11 11
16 16 16 15 16 15 15 15 15 15 15 14 15 16 15 16 15 14 14 14 14 14 14 14 14 13 14 14 14 14 14 13 13 13 13 13 12 12 11 11 11 11 11
16 16 16 15 15 15 15 15 15 15 15 14 14 14 16 16 17 15 13 14 14 14 13 13 14 13 13 14 13 13 14 14 14 13 13 13 13 12 11 11 11 11 11
16 16 16 16 15 15 15 15 15 15 15 15 14 14 14 14 14 15 16 13 13 14 13 13 13 13 14 14 13 14 14 13 13 14 13 13 13 13 12 12 11 11 11
16 16 16 16 15 15 15 15 15 15 15 15 14 15 15 15 13 14 15 14 14 13 13 13 13 13 13 13 13 14 14 14 13 13 13 13 13 13 13 12 12 12 12
16 15 16 16 15 15 15 15 15 15 15 15 14 14 14 15 15 14 15 15 13 12 12 13 13 13 13 13 13 14 14 13 13 13 13 13 13 13 13 13 13 12 12
16 15 15 15 16 15 15 15 15 15 15 15 14 14 14 14 14 14 15 15 13 12 12 12 12 13 13 13 14 14 14 14 13 13 13 13 13 13 13 13 13 13 13
16 16 16 16 15 15 15 16 15 15 15 14 14 14 14 14 14 14 14 14 15 14 12 12 12 12 12 12 14 14 14 13 14 13 13 13 13 13 13 13 13 13 13
16 16 15 15 15 15 15 15 15 15 15 14 14 14 14 14 14 14 13 14 14 14 14 14 12 13 12 12 13 13 12 13 14 14 13 13 13 13 13 13 13 13 13
15 15 15 15 15 15 15 15 15 15 15 14 14 14 14 14 14 13 13 13 13 13 13 15 13 12 12 12 13 12 12 12 13 14 14 13 13 13 13 13 13 13 13
14 14 14 15 15 14 14 15 14 14 14 14 14 14 13 13 13 13 13 12 12 13 13 13 12 11 12 13 13 12 12 12 13 13 14 14 13 13 14 13 13 13 13
14 14 14 14 14 14 14 14 13 13 13 13 13 13 13 14 13 13 13 13 12 12 12 13 11 11 11 12 11 11 11 11 11 13 14 14 14 13 13 13 13 13 13
13 13 13 13 13 12 12 12 12 12 12 12 12 12 12 12 13 13 13 13 12 12 12 12 12 11 11 11 11 11 10 10 9 10 11 12 13 13 13 13 13 13 12
10 11 10 10 10 10 9 10 11 11 11 11 11 11 11 12 12 12 13 13 12 12 12 12 12 12 11 11 11 11 10 8 7 8 8 8 8 9 8 8 8 8 8
5 6 5 5 4 3 5 8 9 10 10 9 9 8 8 11 11 12 12 12 13 12 12 12 12 12 12 12 11 11 9 7 7 6 6 5 5 6 5 5 5 6 5
0 1 1 1 -0 -1 1 5 7 7 6 6 6 6 7 7 9 10 12 12 12 12 13 12 12 12 12 12 11 11 9 9 8 6 7 1 2 2 2 1 1 1 0
-1 -3 -3 -2 -3 -3 -1 1 3 3 3 2 2 2 3 5 5 7 8 8 7 8 9 11 11 12 12 12 12 11 10 8 7 4 6 -1 -1 -1 -1 -1 -1 -1 -2
-3 -4 -4 -3 -3 -4 -3 -1 0 0 0 -1 -1 -1 1 2 3 4 5 3 2 2 3 6 9 9 11 10 11 11 8 6 1 2 3 0 -1 -2 -2 -3 -3 -3 -3
-4 -4 -4 -4 -4 -4 -3 -2 -2 -3 -3 -3 -3 -3 -3 -2 2 2 2 2 1 1 2 2 2 3 6 6 8 8 7 8 1 0 1 1 -2 -2 -4 -4 -4 -4 -4

GFSMA_925_temp_114.txt.gz
Temp
19 20 21 21 21 20 20 20 20 19 18 19 19 19 19 20 20 20 20 18 17 17 17 16 15 15 14 15 15 15 14 14 14 14 13 13 13 13 12 12 12 12 12
19 18 20 21 21 20 20 20 19 19 19 19 19 19 19 20 19 19 20 17 18 17 17 16 16 15 14 14 14 14 14 14 14 13 13 13 12 12 12 12 12 11 12
19 18 18 20 21 21 19 19 19 19 19 19 19 18 19 19 19 19 19 19 18 17 17 17 15 14 15 14 14 14 14 14 14 13 13 13 13 12 12 12 11 11 11
18 18 18 18 20 20 18 19 18 18 19 18 18 18 18 18 18 18 18 18 18 17 17 16 16 14 15 14 13 14 14 13 13 13 13 13 13 12 12 11 11 11 11
18 19 18 17 17 18 17 18 19 18 19 18 18 18 18 17 18 18 18 18 17 16 16 16 15 14 14 14 14 14 13 13 13 13 13 13 13 12 12 12 11 11 11
19 19 20 18 17 17 17 17 18 18 19 18 18 19 18 18 18 18 18 17 16 16 16 15 15 14 15 14 14 14 14 13 13 13 13 13 13 12 12 11 11 11 11
19 19 19 18 17 16 16 17 17 17 17 18 17 17 17 17 17 18 18 17 16 16 15 16 15 15 14 14 14 15 14 14 13 13 13 13 13 12 12 11 11 11 11
19 19 19 17 16 16 16 16 16 16 16 16 16 17 17 17 17 17 17 16 15 14 14 15 15 15 14 14 14 14 14 14 14 13 13 13 13 12 12 11 12 11 11
19 18 18 17 16 16 16 16 16 16 16 15 17 19 19 19 21 19 17 17 16 14 14 15 14 14 14 14 14 14 14 14 14 13 13 13 13 13 12 11 12 11 11
18 18 17 16 16 16 16 16 16 16 16 15 15 17 20 21 19 19 17 16 16 15 14 14 14 14 14 14 14 15 14 14 14 13 14 13 13 13 12 12 12 11 11
17 17 16 16 16 16 16 16 16 16 16 16 15 16 18 18 18 18 19 19 15 15 15 14 14 13 13 13 14 15 15 14 14 14 14 14 14 13 13 12 12 11 11
16 16 16 16 16 16 16 16 16 16 15 16 15 18 18 18 18 17 18 18 19 18 14 14 14 13 13 13 13 14 14 14 14 14 14 14 14 14 13 13 12 12 11
16 16 16 16 16 16 16 16 15 15 15 15 16 17 18 18 18 18 18 18 18 18 16 14 14 13 13 13 13 13 14 14 14 14 14 14 14 13 13 13 13 12 12
17 16 16 16 16 16 16 16 15 15 15 15 16 16 17 17 18 18 18 18 15 15 16 15 13 13 13 13 12 13 13 14 14 14 14 14 13 13 13 13 13 13 13
17 16 16 16 16 15 15 15 15 15 15 16 15 16 16 17 18 17 16 16 16 16 14 14 16 12 12 13 13 13 13 14 14 14 14 14 14 13 13 13 13 13 13
18 17 16 16 15 15 15 15 15 15 15 15 15 15 15 15 15 15 15 15 15 15 16 15 16 16 12 12 12 13 13 14 14 14 14 13 13 13 13 13 13 13 13
18 17 16 16 15 15 15 15 15 15 15 15 15 15 15 15 14 14 14 14 14 14 14 15 15 15 13 12 12 12 12 13 14 14 14 14 13 13 13 13 13 13 13
16 16 15 15 15 15 15 15 15 15 15 15 15 14 14 14 14 15 15 14 14 14 14 15 14 13 12 12 12 12 12 12 13 14 14 14 14 13 13 13 13 13 13
15 15 15 15 15 14 14 15 15 15 14 14 14 14 15 15 15 15 14 14 14 14 14 14 14 13 12 12 12 12 12 12 13 14 14 14 14 14 13 13 13 13 12
12 12 12 12 12 12 12 12 13 13 13 13 13 13 14 14 14 14 13 13 13 13 13 13 13 12 12 12 11 12 12 12 12 11 13 13 13 13 13 12 12 12 12
5 6 7 6 6 7 7 9 11 11 11 11 12 12 12 11 11 11 11 12 13 13 13 13 13 12 12 12 11 12 12 10 8 10 10 10 11 11 11 11 12 12 12
1 2 2 2 1 2 3 7 8 9 8 8 7 8 8 8 8 9 10 11 11 12 13 13 13 12 12 12 11 12 11 7 7 7 9 6 7 7 7 7 8 9 9
-2 -2 -2 -1 -1 -0 2 4 6 6 5 4 2 3 3 3 4 4 5 7 9 10 10 11 12 12 13 12 12 11 11 9 10 6 6 2 3 3 3 3 4 5 5
-3 -3 -3 -3 -3 -3 0 1 2 2 1 -0 -1 -1 -1 -0 1 3 3 3 5 6 7 7 9 10 12 12 12 12 11 9 7 5 6 0 0 -0 -0 0 -0 0 0
-4 -4 -4 -4 -4 -4 -4 -1 0 -1 -2 -3 -3 -3 -3 -3 -1 2 2 1 1 1 1 2 3 5 9 11 11 11 7 6 1 2 3 1 -1 -2 -2 -2 -3 -2 -3
-3 -4 -4 -4 -5 -5 -5 -5 -3 -3 -3 -4 -5 -5 -5 -4 -3 -0 0 -0 -1 -2 -1 0 2 3 4 5 8 9 8 8 2 0 1 0 -2 -2 -3 -3 -4 -4 -4

GFSMA_925_temp_117.txt.gz
Temp
22 22 23 22 21 22 21 20 20 20 20 21 21 20 20 21 21 22 21 20 19 18 17 16 16 17 17 16 16 15 15 15 15 14 14 13 13 13 12 12 12 12 12
22 23 23 23 23 23 21 21 20 20 20 20 20 20 20 20 21 21 21 19 19 18 17 17 16 16 15 16 15 15 15 15 14 14 14 13 13 13 12 12 12 12 12
22 21 21 23 24 24 22 21 20 19 19 19 20 20 20 20 20 20 20 20 19 18 17 17 17 16 15 14 14 14 14 14 14 14 14 13 13 13 12 12 11 11 12
21 21 20 21 23 23 22 21 20 20 19 19 19 19 19 19 19 19 20 19 19 18 18 17 17 15 16 14 14 13 13 14 14 14 14 13 13 13 12 12 11 11 11
19 21 20 19 21 23 22 20 20 19 19 20 19 19 19 19 19 19 19 19 19 18 18 17 16 16 16 15 14 14 14 13 14 14 13 13 13 13 12 12 11 11 11
19 19 21 19 19 20 21 20 20 19 20 20 19 19 19 19 19 19 19 19 18 18 18 16 16 16 15 15 14 14 14 14 13 14 14 13 13 13 12 12 11 11 12
21 20 20 20 18 18 19 19 20 20 19 20 19 19 19 19 19 19 20 20 19 19 17 16 14 15 16 15 15 14 14 14 14 13 13 13 13 13 12 12 12 11 11
22 21 21 22 19 18 17 18 18 19 19 19 19 19 18 18 19 19 20 20 19 19 17 16 15 14 15 15 15 14 14 14 14 13 13 14 13 13 13 12 11 12 12
22 21 21 21 21 19 17 17 17 18 18 18 19 20 20 21 23 20 19 19 18 17 17 16 14 14 14 15 15 14 14 14 14 14 13 13 13 13 13 12 12 12 12
22 21 21 20 20 18 18 17 17 17 17 17 17 19 21 23 23 22 20 19 19 18 17 16 15 14 14 15 15 14 13 14 14 14 14 13 13 13 13 12 12 12 12
21 21 20 20 20 18 17 17 17 16 17 17 16 18 19 20 21 22 21 19 19 18 17 16 15 14 14 14 14 14 14 14 14 14 14 14 14 13 13 13 12 12 12
20 20 20 19 19 18 17 17 16 16 16 17 17 18 18 19 21 20 20 20 19 19 19 18 16 14 14 13 14 14 14 14 14 14 14 14 14 14 13 13 13 12 12
20 20 19 18 18 18 17 17 16 16 16 16 16 16 19 19 20 21 20 20 21 21 20 18 16 14 14 14 13 14 14 14 14 15 14 14 14 14 13 13 13 13 12
21 20 18 17 17 18 17 16 16 16 16 16 16 16 18 19 19 20 20 20 19 20 19 19 16 14 14 13 14 14 14 13 13 14 14 14 14 13 13 14 13 13 13
22 20 18 16 16 16 17 16 16 16 16 16 16 16 17 18 18 18 19 19 20 19 19 19 18 16 14 13 13 13 13 13 13 14 14 14 14 14 14 13 13 14 13
21 19 17 16 16 16 16 16 16 16 15 15 16 16 16 17 17 17 18 18 18 18 18 19 17 17 15 13 13 13 13 13 13 13 13 13 14 14 14 13 13 13 13
20 19 17 16 16 16 16 16 16 15 15 15 15 15 16 16 16 16 17 17 16 16 16 16 17 17 17 14 13 13 12 12 13 13 13 14 14 14 14 13 13 13 13
19 19 18 17 16 16 16 15 15 15 15 15 15 15 15 15 15 15 15 15 15 14 15 15 16 16 15 16 14 13 12 12 13 13 13 14 14 14 14 14 13 13 13
16 15 15 15 15 15 15 15 15 15 15 15 15 15 15 15 15 14 14 15 15 15 15 15 15 15 15 15 14 12 12 12 12 13 13 13 14 14 13 13 13 13 13
6 6 8 8 9 11 12 14 15 14 14 15 14 14 14 14 14 13 13 14 14 15 14 14 14 14 14 14 14 13 12 12 12 12 12 13 13 14 13 13 13 13 13
1 1 2 4 4 5 6 9 11 12 12 12 11 11 10 10 10 10 9 9 10 10 12 13 13 13 13 13 13 13 12 12 12 12 12 12 12 12 13 13 13 13 12
-2 -1 -1 -1 0 1 4 7 7 8 8 8 7 8 8 8 9 8 8 6 6 6 7 10 12 13 13 13 13 12 12 9 8 9 10 9 9 10 12 12 12 12 12
-3 -3 -3 -3 -3 -2 -0 2 4 2 0 0 1 2 2 2 4 5 5 5 3 4 4 4 5 8 9 12 12 12 12 11 11 10 8 4 5 6 7 8 9 11 11
-4 -4 -4 -4 -4 -4 -2 -1 -0 -0 0 -2 -2 -2 -2 -1 1 2 3 3 2 2 1 1 1 1 2 5 8 10 12 12 9 8 7 1 1 1 2 3 3 5 6
-3 -4 -4 -4 -4 -4 -3 -3 -1 -3 -3 -4 -4 -4 -3 -3 -2 1 1 1 0 0 0 0 1 1 1 2 4 7 10 7 1 3 5 2 0 -1 -1 -0 -1 1 0
-3 -3 -4 -4 -4 -4 -4 -5 -3 -4 -5 -5 -5 -5 -5 -4 -4 -2 -1 -2 -2 -3 -2 0 1 1 -0 -0 1 4 5 7 3 1 2 2 -1 -1 -3 -3 -3 -3 -3

GFSMA_925_temp_120.txt.gz
Temp
22 22 22 22 21 19 20 19 18 19 19 20 20 20 20 21 21 21 20 20 20 19 18 17 17 17 17 16 16 16 15 15 15 15 14 14 13 13 13 12 12 12 12
22 22 22 22 22 21 21 20 19 19 20 20 20 20 20 20 21 21 20 20 20 19 18 18 16 16 17 16 15 15 15 15 15 15 14 14 13 13 12 12 12 12 12
22 22 22 22 22 23 22 21 21 20 20 20 20 20 20 20 20 20 20 20 20 19 19 18 18 17 16 16 15 16 15 14 14 14 14 14 13 13 12 12 12 11 12
22 22 22 22 23 23 23 22 21 20 20 20 20 20 19 20 20 20 20 20 19 19 18 18 18 17 16 16 16 15 14 14 14 14 14 14 13 13 12 12 11 11 11
22 21 21 22 22 23 22 22 21 20 19 19 19 20 20 19 19 19 19 20 19 18 18 18 18 17 16 16 16 14 15 14 14 14 14 13 13 13 12 12 11 11 11
21 21 20 20 22 21 22 21 21 21 20 20 19 19 19 19 19 19 19 19 19 19 18 18 17 16 16 16 16 15 14 14 13 14 14 13 13 13 13 12 11 11 11
20 20 20 20 20 21 21 21 20 20 20 20 20 20 19 19 19 19 19 19 19 19 19 18 17 17 16 16 16 15 14 14 14 13 14 14 13 13 13 12 11 11 11
21 19 19 20 19 19 20 20 20 19 19 20 19 19 17 18 18 19 19 19 20 19 19 18 17 17 16 16 15 15 15 14 14 14 14 14 13 13 13 12 11 11 11
21 21 19 19 20 19 19 19 19 19 19 19 19 19 17 17 17 19 19 19 20 19 18 18 17 16 16 15 15 15 15 15 14 14 14 14 13 13 13 13 12 12 12
22 21 21 19 20 20 19 18 18 19 19 19 18 19 21 21 18 17 19 19 19 19 19 18 17 16 15 15 15 15 15 15 14 14 14 14 14 13 13 13 12 12 12
22 21 21 20 20 20 19 18 17 18 18 19 18 18 19 19 19 18 16 17 18 18 18 18 17 16 15 15 15 15 15 15 14 14 14 14 14 13 13 13 13 12 12
19 21 21 21 20 20 20 18 17 17 18 18 18 19 19 18 19 19 17 16 17 19 18 18 17 16 15 15 14 14 15 16 15 15 14 14 14 14 13 13 13 13 12
17 19 20 20 20 19 19 18 17 17 17 17 17 17 18 18 19 20 19 17 16 18 19 18 17 17 16 16 14 14 14 14 15 14 14 14 14 14 13 13 13 13 13
15 18 19 20 20 20 19 18 17 17 17 17 17 17 17 17 18 18 19 18 16 16 19 19 18 17 17 16 16 15 14 14 14 14 14 14 14 14 13 13 13 13 13
13 16 18 19 19 19 19 18 17 17 17 17 17 17 16 16 17 18 19 19 17 15 16 19 18 17 17 17 17 15 14 14 14 14 14 14 13 13 14 13 13 13 13
12 16 18 19 18 18 19 18 17 16 16 16 16 16 16 16 17 18 18 18 19 17 16 19 19 18 17 16 17 16 15 13 13 13 13 13 13 13 13 13 13 13 13
10 14 18 17 17 16 18 18 16 16 16 16 16 16 16 16 17 17 17 17 17 17 16 17 17 17 17 16 15 15 15 14 13 13 13 13 13 13 13 13 13 13 13
12 15 18 17 15 15 17 16 16 16 15 15 15 16 16 16 16 17 17 16 16 17 17 15 16 16 16 16 15 15 14 13 13 12 13 12 13 13 12 13 13 13 13
5 6 11 11 12 13 15 16 16 15 15 15 15 15 15 15 16 16 16 15 15 16 15 14 15 15 15 16 15 14 14 13 13 13 12 13 13 13 13 13 13 13 13
1 2 3 3 4 7 10 13 15 15 15 15 15 15 14 14 14 14 14 13 13 13 13 14 14 14 14 14 14 14 13 13 12 12 12 12 13 13 13 13 13 13 13
-0 -1 -1 0 1 2 4 7 10 10 9 8 8 8 8 7 8 9 10 13 11 10 9 10 11 13 13 13 13 14 13 13 12 12 12 12 12 12 12 12 12 12 13
-2 -2 -2 -2 -2 -1 -0 3 3 3 4 2 2 3 4 5 5 5 6 7 7 6 6 7 8 10 11 12 12 12 13 13 10 12 12 11 12 11 12 12 13 12 13
-3 -3 -3 -3 -3 -3 -2 -1 -0 -1 -1 -1 -0 -1 -1 -0 2 4 4 4 4 3 3 3 3 3 3 4 3 5 8 12 12 13 11 10 9 8 9 10 11 12 12
-4 -4 -4 -4 -4 -4 -4 -3 -2 -1 -4 -3 -3 -2 -2 -2 -0 1 3 2 1 1 1 1 0 -0 0 -0 0 1 3 4 7 10 9 4 4 3 4 5 6 7 9
-4 -4 -5 -5 -4 -4 -4 -3 -3 -4 -4 -4 -5 -4 -4 -4 -2 -1 -0 -1 -1 -2 -1 -1 -1 -1 -1 -1 -0 2 2 2 4 6 6 6 1 -0 1 1 1 2 4
-4 -4 -5 -5 -5 -5 -4 -4 -4 -4 -4 -4 -5 -5 -5 -5 -5 -3 -3 -3 -4 -4 -3 -2 -2 -1 -2 -2 -1 -2 -2 -2 3 2 4 3 -0 1 -2 -2 -1 -1 -0

GFSMA_925_temp_123.txt.gz
Temp
20 20 20 20 20 20 19 19 19 19 19 20 19 19 20 21 20 20 20 19 19 19 19 18 18 17 17 17 16 16 16 15 15 15 14 14 14 13 13 13 12 12 12
21 21 21 21 20 20 20 19 19 19 19 20 20 19 19 20 20 20 20 19 19 19 19 18 18 17 17 17 17 16 16 15 15 15 14 14 14 13 13 12 12 12 12
21 21 21 21 21 21 21 20 19 19 19 20 20 20 20 20 20 20 20 20 20 19 19 18 18 17 17 16 16 16 16 15 15 15 14 14 14 13 12 12 12 11 12
21 21 21 22 21 21 21 20 20 19 19 20 20 20 20 20 20 20 19 20 19 19 18 18 18 17 17 16 16 16 15 15 14 14 14 14 13 13 12 12 11 11 11
21 21 21 22 22 21 21 21 20 20 19 20 20 21 20 20 20 20 20 19 19 19 19 19 18 17 17 16 16 15 15 14 14 14 14 14 14 13 12 12 11 11 11
21 21 21 21 22 21 21 20 20 20 20 20 20 20 20 20 19 19 19 19 19 19 19 18 18 17 16 16 17 16 16 14 14 13 13 14 14 13 13 12 12 11 11
20 21 21 21 21 22 21 20 20 20 19 20 19 19 19 20 19 19 19 20 20 19 19 18 18 18 17 16 16 16 15 14 14 13 13 14 14 14 13 12 12 11 11
20 21 20 20 20 21 20 20 19 18 19 19 18 18 16 18 18 19 19 19 19 20 19 18 18 18 18 17 16 16 16 15 14 14 14 14 14 14 13 13 12 12 11
18 20 20 20 20 19 19 19 19 19 18 17 20 19 16 16 16 17 18 19 19 19 19 19 19 18 18 17 17 16 16 15 15 14 14 14 14 14 14 13 12 12 11
14 17 19 20 20 19 18 19 19 19 19 18 18 20 21 20 16 15 17 18 19 19 19 18 18 18 18 17 16 16 16 16 15 14 14 14 14 14 14 13 13 12 12
12 15 17 19 19 20 19 18 19 18 18 19 18 18 19 19 20 15 15 16 17 18 19 18 18 18 17 17 16 16 16 16 15 14 14 14 14 14 14 13 13 13 12
9 11 14 17 19 18 20 20 18 18 19 19 18 19 18 19 17 16 15 15 16 17 18 18 18 18 18 17 17 16 16 15 15 15 14 14 14 14 14 14 13 13 13
7 9 12 15 17 19 19 19 19 19 16 17 19 18 18 18 19 19 18 15 14 17 17 18 18 18 18 17 17 17 16 16 15 14 14 14 13 13 13 13 14 13 13
6 7 9 12 15 17 19 19 19 19 17 14 17 18 18 18 17 18 18 17 15 15 17 18 18 18 18 18 17 17 16 17 16 15 15 15 14 13 13 13 13 13 13
5 6 7 10 13 15 18 19 18 19 18 17 18 16 17 17 18 18 18 19 17 15 15 16 18 18 18 17 17 17 17 17 17 15 15 14 14 13 13 13 13 13 13
5 6 6 7 11 13 16 18 18 19 18 17 17 19 17 17 17 16 17 18 18 17 15 17 17 19 18 18 17 17 17 16 16 15 14 13 13 13 13 13 13 13 13
6 7 7 8 10 13 16 17 18 17 16 16 16 16 16 16 16 15 16 17 17 17 15 17 18 17 17 17 17 17 17 16 16 15 13 13 13 13 13 13 13 13 13
6 7 8 9 11 12 14 16 18 16 16 15 16 16 16 16 16 15 15 16 16 16 16 15 16 16 16 17 16 16 16 16 16 16 16 15 12 12 12 13 13 13 13
1 2 3 4 5 6 9 11 13 16 15 15 15 15 15 15 15 15 15 15 15 15 16 16 15 15 17 17 16 15 14 15 15 15 15 15 14 12 12 12 12 12 12
-1 -1 -1 -0 1 2 4 7 12 14 15 15 13 14 14 14 15 15 15 15 14 14 14 14 14 14 15 15 14 15 13 13 13 15 14 13 13 13 12 12 12 12 12
-2 -2 -2 -2 -1 -0 -0 1 3 3 5 5 3 5 5 6 8 11 12 12 13 13 11 12 11 12 13 13 13 14 14 13 13 13 13 13 13 13 12 12 12 12 12
-4 -3 -3 -3 -3 -2 -1 -0 -0 -1 -1 -0 0 0 1 3 3 5 6 7 7 8 8 8 9 9 9 9 9 9 9 11 12 13 12 12 12 12 12 12 12 12 12
-5 -5 -4 -3 -3 -3 -3 -1 -2 -1 -2 -3 -2 -2 -1 0 2 2 2 2 2 2 3 3 5 4 2 2 2 4 4 4 7 10 9 11 11 11 11 11 11 11 12
-5 -5 -5 -5 -4 -4 -4 -3 -3 -3 -4 -4 -4 -4 -3 -2 -0 0 1 1 -1 -1 -1 -0 -1 -2 -1 -1 -0 0 1 1 3 7 8 7 9 8 8 7 8 9 9
-6 -7 -7 -6 -6 -5 -4 -4 -4 -4 -4 -4 -4 -4 -4 -4 -4 -1 -1 -2 -3 -3 -3 -3 -4 -4 -3 -4 -1 0 -1 -1 2 5 6 6 5 3 2 2 3 4 6
-8 -8 -8 -8 -7 -7 -5 -5 -4 -4 -4 -4 -4 -4 -4 -4 -4 -4 -3 -4 -4 -5 -4 -3 -3 -3 -3 -4 -4 -4 -4 -3 -2 2 1 3 1 1 -1 -2 -1 -0 1

GFSMA_925_temp_129.txt.gz
Temp
18 18 18 18 19 18 18 18 18 18 18 18 18 19 19 19 20 19 20 20 19 19 19 18 18 18 17 17 17 17 17 16 16 16 15 15 15 14 14 14 14 14 14
18 19 18 18 18 17 18 18 18 17 18 18 18 19 19 19 19 19 20 20 20 19 19 18 18 18 17 17 17 17 17 16 16 15 15 15 15 14 14 13 13 14 13
16 17 18 18 20 17 18 18 18 18 17 18 18 18 19 19 19 19 19 20 20 19 19 18 18 18 17 17 17 17 17 16 16 15 15 15 15 14 13 13 13 13 13
16 16 17 17 18 19 18 18 18 18 17 17 18 18 18 19 18 19 19 20 20 19 19 18 18 18 18 17 17 16 16 16 16 15 15 15 14 14 13 13 13 12 12
15 14 15 17 16 16 17 19 17 17 17 16 17 17 18 18 19 18 19 19 19 19 19 19 18 18 18 18 17 17 15 16 15 15 15 15 15 14 13 13 13 12 12
12 13 15 14 15 15 16 16 18 18 17 17 17 16 17 18 18 18 19 19 19 19 19 18 18 18 18 17 17 16 16 15 15 15 15 15 14 14 14 13 13 12 12
10 10 12 14 15 15 15 16 17 17 17 17 16 16 16 17 17 18 19 19 19 19 19 19 18 18 17 17 17 17 16 16 16 15 15 14 14 14 14 13 13 13 12
7 8 10 10 13 13 14 15 16 16 17 17 18 17 16 16 16 17 17 18 19 19 19 19 19 18 18 18 17 17 17 16 16 16 15 15 14 14 13 13 13 13 12
6 6 7 9 10 13 14 14 14 16 16 17 17 18 16 17 17 17 16 16 17 18 18 18 18 18 18 18 18 18 17 17 16 16 15 15 15 14 13 12 12 13 13
3 4 5 7 8 9 13 13 14 14 15 16 16 19 20 19 16 15 15 17 16 17 18 18 18 18 18 18 18 18 18 17 17 16 15 15 15 14 13 13 12 13 13
2 3 4 5 6 8 10 12 14 14 14 15 16 17 18 17 17 14 16 16 16 16 16 17 18 18 18 18 18 18 18 18 17 17 16 15 15 14 14 13 13 13 13
1 2 3 4 5 7 9 11 12 14 14 15 16 18 19 18 16 15 14 14 17 17 16 16 16 17 18 18 18 18 18 18 17 17 16 15 15 14 14 14 13 13 13
2 3 3 3 4 5 7 9 10 11 13 15 16 17 18 18 18 17 17 16 14 16 16 15 16 16 17 18 18 18 18 17 17 17 16 16 15 14 14 14 13 13 13
2 2 2 3 3 3 5 6 9 10 11 14 15 16 16 17 16 15 15 15 15 14 14 16 15 16 16 17 19 19 19 19 17 17 16 16 15 15 14 14 13 13 13
2 3 3 4 4 4 5 6 7 8 10 13 14 15 16 15 17 16 16 14 14 15 15 16 17 16 15 16 18 18 19 19 18 17 17 16 15 15 14 14 13 13 13
1 1 3 3 5 5 5 6 6 7 9 11 13 14 15 16 16 15 14 14 13 15 15 17 18 18 18 18 18 18 19 19 19 18 17 17 16 15 14 14 13 13 13
-1 -0 1 2 5 6 6 7 7 7 9 11 13 14 14 15 14 13 13 13 14 14 15 16 17 17 17 18 17 17 17 17 18 18 17 17 17 16 15 14 14 13 13
-2 -2 -1 -1 -0 1 4 6 8 9 10 12 13 13 13 13 13 13 13 13 14 14 14 15 15 16 16 16 17 17 16 16 17 18 17 17 17 17 16 15 14 13 13
-3 -3 -2 -2 -2 -1 1 3 5 8 8 8 9 10 10 12 12 13 13 13 13 14 13 14 15 15 14 16 14 14 14 15 15 16 17 17 17 17 16 15 14 13 13
-5 -3 -3 -3 -2 -2 -1 -1 0 1 1 2 3 3 4 6 7 10 12 13 14 14 13 14 14 14 13 13 13 13 13 13 14 14 14 15 16 16 16 15 14 13 12
-6 -5 -4 -3 -3 -3 -3 -2 -2 -1 -1 -1 -0 0 1 1 3 6 8 8 10 13 14 14 14 14 13 13 13 13 13 13 13 13 13 13 13 13 13 13 13 12 12
-7 -6 -5 -4 -4 -4 -4 -4 -4 -3 -3 -3 -2 -2 -1 -1 -1 2 2 2 3 8 5 3 14 13 10 8 9 10 11 11 11 11 12 12 12 12 12 11 12 12 11
-8 -7 -6 -5 -5 -4 -4 -4 -4 -4 -4 -4 -4 -4 -3 -3 -2 -2 -2 -1 -1 1 1 1 -2 -2 -1 -2 0 3 5 6 7 7 6 8 10 10 10 10 10 10 11
-9 -8 -7 -7 -6 -5 -5 -5 -5 -5 -5 -5 -5 -5 -5 -5 -4 -3 -3 -4 -4 -4 -2 -2 -0 -1 -1 -1 -2 -0 -1 1 4 3 4 3 6 7 8 7 8 8 8
-9 -9 -8 -7 -7 -6 -6 -6 -6 -6 -6 -7 -6 -6 -6 -5 -5 -5 -4 -4 -5 -5 -4 -4 -4 -4 -1 -1 -0 0 -1 0 1 0 -1 0 2 3 5 5 4 4 4
-9 -9 -9 -8 -8 -8 -7 -7 -7 -7 -7 -7 -8 -7 -7 -6 -6 -6 -6 -6 -5 -5 -5 -5 -5 -5 -4 -4 -4 -2 -4 -4 -3 -0 -4 -3 -0 1 1 0 1 1 2

GFSMA_925_temp_132.txt.gz
Temp
17 17 17 17 18 18 18 17 17 17 17 18 18 19 19 18 18 19 19 19 19 19 18 18 18 18 18 18 18 17 17 16 16 16 16 16 15 15 15 14 14 15 14
16 17 17 17 17 18 17 17 17 17 17 17 18 18 19 19 18 19 19 19 19 19 19 18 18 18 18 17 17 17 17 16 16 16 16 16 15 15 14 14 14 14 14
15 16 16 17 17 17 17 18 17 17 17 16 17 18 18 19 19 19 19 19 19 19 19 18 18 18 17 17 17 17 17 16 16 16 16 16 15 15 14 14 14 14 14
13 13 14 15 16 15 17 17 17 17 16 16 17 17 18 18 18 19 19 19 19 19 19 18 18 18 18 17 17 17 17 17 16 16 16 15 15 15 14 14 14 13 13
11 11 12 15 14 14 14 15 17 17 16 16 16 17 19 18 18 18 18 19 19 19 19 19 18 18 17 17 17 17 17 17 16 16 15 15 15 15 14 14 13 13 13
9 9 10 12 13 14 15 17 15 16 16 16 16 16 18 19 19 18 18 18 19 19 19 19 18 18 18 17 17 17 16 15 15 15 15 15 15 15 14 14 13 13 13
7 8 9 10 12 12 12 14 14 15 15 16 16 16 16 17 16 19 18 18 18 18 19 19 18 18 18 17 17 17 16 16 16 15 15 15 15 15 14 14 14 13 13
4 5 6 7 10 10 11 13 14 15 15 15 16 17 17 16 15 16 17 17 18 18 18 18 19 18 18 18 18 17 17 16 16 16 16 16 15 15 14 14 14 13 13
2 4 5 5 7 8 9 11 13 14 15 15 15 16 16 17 16 16 15 16 17 17 18 18 19 19 18 18 18 18 17 17 16 16 16 16 15 15 14 14 13 13 12
0 2 3 4 4 6 7 9 12 14 14 15 16 15 16 15 15 15 15 15 16 17 17 18 18 18 18 18 18 18 18 18 17 17 16 16 16 15 15 14 13 12 12
-0 1 2 3 3 4 5 6 9 11 14 15 15 15 14 14 15 15 15 15 15 15 16 16 17 18 18 18 18 18 18 18 18 18 17 16 15 15 15 14 13 13 12
1 1 2 3 3 3 4 6 8 10 11 13 14 15 15 15 16 15 16 15 16 16 16 15 15 16 17 18 18 18 18 18 18 18 18 17 15 15 15 14 14 13 13
1 1 2 2 3 3 3 4 5 8 10 13 14 15 15 15 15 16 16 17 16 16 16 16 16 15 15 16 18 18 18 18 18 18 17 17 16 15 15 15 14 14 13
1 2 2 2 3 3 3 3 4 5 8 8 11 14 15 15 15 15 15 15 15 14 14 14 16 16 16 15 16 18 18 18 17 18 17 16 16 16 15 15 14 14 13
0 1 1 2 3 3 4 4 4 5 7 8 10 12 14 14 14 15 16 16 15 13 13 14 14 16 17 15 15 15 17 18 18 18 18 17 16 16 16 15 14 14 13
-1 -1 -0 1 2 5 4 4 5 5 6 7 8 10 12 13 14 15 16 14 14 14 14 15 15 15 16 16 16 14 16 16 18 20 19 18 17 16 16 15 14 14 14
-2 -2 -1 -1 -0 2 3 5 5 6 7 7 8 10 12 13 13 14 14 13 13 13 14 15 16 15 15 15 16 16 14 15 16 20 20 18 18 17 16 15 14 14 13
-3 -3 -2 -2 -2 -1 1 2 4 6 8 8 8 9 11 12 13 13 13 13 13 13 13 14 15 15 16 15 17 16 16 14 14 16 19 19 18 17 17 16 15 15 14
-4 -3 -3 -3 -3 -2 -2 -1 0 1 1 2 3 4 4 8 11 11 12 12 13 13 13 14 15 15 16 15 14 14 14 14 14 14 14 17 17 17 17 16 14 14 14
-5 -4 -4 -3 -3 -3 -3 -3 -3 -2 -1 -1 -1 -0 -0 0 2 5 8 10 12 12 13 13 14 14 14 14 14 14 13 13 14 14 14 14 14 15 15 14 13 13 13
-6 -5 -5 -5 -4 -4 -4 -4 -4 -4 -4 -3 -3 -3 -2 -1 -2 -2 -0 1 5 8 11 12 13 13 13 13 13 13 13 13 12 12 12 13 13 13 13 13 13 13 12
-7 -7 -6 -6 -5 -5 -5 -5 -5 -5 -5 -5 -5 -4 -4 -3 -3 -3 -4 -3 -2 -0 3 5 2 5 2 2 5 8 11 12 11 10 11 12 12 13 12 12 12 12 12
-8 -8 -8 -7 -6 -6 -5 -6 -6 -7 -6 -6 -6 -6 -5 -5 -4 -4 -4 -4 -4 -3 -3 -2 -2 -2 -2 -1 1 1 2 3 3 4 6 8 10 10 10 10 10 11 11
-9 -9 -9 -9 -7 -7 -7 -7 -7 -8 -8 -7 -6 -7 -6 -6 -6 -5 -5 -5 -5 -5 -5 -5 -5 -5 -4 -2 -1 0 1 1 1 2 2 3 4 6 6 6 7 7 8
-10 -10 -10 -9 -9 -8 -7 -8 -9 -9 -9 -9 -9 -7 -7 -7 -7 -7 -6 -6 -6 -6 -6 -6 -6 -6 -4 -5 -2 -1 -2 1 1 -1 -1 -1 0 2 3 4 3 4 3
-10 -11 -11 -11 -10 -9 -8 -9 -9 -10 -10 -10 -10 -10 -8 -8 -8 -8 -9 -8 -8 -8 -7 -7 -6 -6 -6 -6 -5 -5 -5 -4 -3 -1 -4 -4 -2 -1 1 -0 0 1 1

GFSMA_925_temp_138.txt.gz
Temp
15 16 16 17 17 18 18 18 18 18 18 19 19 20 20 20 20 21 22 20 19 19 19 18 18 18 18 18 18 18 18 18 17 17 17 16 16 16 16 15 15 15 15
13 14 15 15 16 16 17 17 17 17 17 18 18 19 19 20 20 20 20 21 19 19 19 19 18 18 18 18 18 18 18 18 17 17 17 16 16 16 16 16 15 15 15
11 13 15 16 17 15 15 16 15 15 16 16 17 18 18 19 20 20 19 20 21 19 19 19 19 18 18 18 18 18 18 18 17 17 17 16 16 16 16 16 15 15 15
10 10 13 14 15 15 15 15 15 15 15 16 17 15 17 18 19 19 19 19 20 21 19 19 19 18 18 18 18 18 17 17 17 17 17 17 16 16 16 16 15 15 15
8 8 10 12 11 13 15 15 16 14 14 16 17 14 17 16 17 18 19 19 19 20 21 20 19 19 18 18 18 18 18 17 17 17 17 17 16 16 16 16 15 15 15
6 7 8 9 9 11 13 14 14 15 15 14 14 14 17 17 16 17 18 19 19 18 19 20 19 18 18 18 18 18 17 16 17 17 16 16 16 16 16 15 15 15 15
5 5 7 8 9 10 11 12 14 14 14 15 14 14 15 15 16 16 17 18 19 19 18 18 20 20 20 19 18 18 18 17 16 16 16 16 16 16 16 16 15 15 15
4 5 5 6 7 8 9 10 11 13 15 16 16 16 18 18 17 16 17 18 19 19 18 19 20 20 20 20 18 18 18 17 17 16 16 16 15 15 16 16 15 15 15
3 3 4 5 5 6 8 9 10 12 14 16 16 18 19 20 22 20 18 18 18 18 18 19 19 19 20 21 20 18 18 18 18 17 16 16 16 16 16 16 16 15 15
2 2 2 3 4 5 7 8 9 10 11 14 15 16 17 20 21 22 20 19 18 18 18 19 19 19 20 20 19 19 18 18 18 18 17 17 16 16 16 16 16 15 15
2 2 2 2 2 3 4 6 7 8 10 12 13 14 15 16 18 19 19 20 17 17 17 18 18 19 20 20 19 19 18 18 19 18 18 17 17 17 16 16 16 16 15
1 1 1 2 2 2 3 4 4 5 6 9 11 12 12 13 17 18 18 20 19 18 17 18 17 18 19 19 19 20 19 18 18 19 19 18 18 17 16 16 16 16 16
-0 -1 -0 0 1 1 2 3 4 4 4 5 7 8 9 10 11 16 18 19 19 17 16 16 16 17 17 18 18 18 18 18 18 17 18 17 18 18 17 17 16 16 16
-2 -2 -1 -1 0 1 2 2 3 3 4 4 5 6 7 9 10 10 15 18 18 18 16 18 19 17 16 17 17 18 18 17 17 16 16 17 17 17 17 18 18 17 16
-2 -2 -2 -2 -1 -0 1 2 2 3 4 4 4 6 8 9 10 12 13 14 17 17 17 17 16 16 16 16 17 17 16 16 17 17 18 18 17 17 16 16 17 18 17
-3 -3 -3 -2 -2 -1 -0 2 4 4 4 5 5 6 8 9 11 12 12 13 14 15 15 16 16 16 15 15 15 15 16 16 15 16 16 18 18 15 15 15 16 15 16
-5 -4 -4 -3 -3 -2 -2 -1 0 3 2 2 3 3 5 7 9 12 11 11 13 15 15 15 15 15 14 14 15 15 13 14 15 15 16 18 19 14 14 15 15 15 15
-5 -5 -4 -4 -4 -4 -3 -3 -2 -2 -1 -1 -1 -0 0 3 4 5 6 7 10 12 13 16 15 13 13 14 13 13 13 15 15 16 16 17 18 16 14 14 15 16 15
-5 -5 -5 -5 -5 -5 -5 -4 -4 -3 -3 -3 -2 -2 -2 -1 0 1 2 3 5 8 9 12 14 14 14 13 13 14 15 15 15 15 15 15 15 16 13 13 14 14 15
-6 -5 -5 -5 -5 -6 -5 -5 -5 -5 -5 -5 -4 -4 -3 -3 -3 -2 -1 -0 2 4 6 7 9 12 11 10 11 10 12 14 15 15 14 14 15 15 13 14 14 13 14
-7 -6 -6 -6 -6 -6 -6 -6 -5 -6 -5 -5 -5 -5 -5 -4 -4 -4 -3 -2 -1 -0 0 -0 0 0 -2 -1 -1 -1 4 6 8 7 12 13 13 13 15 13 13 13 13
-7 -7 -7 -7 -7 -7 -7 -7 -7 -6 -6 -6 -6 -5 -6 -5 -5 -5 -5 -5 -5 -3 -3 -2 -4 -3 -4 -4 -4 -2 2 4 7 5 5 7 9 9 9 9 11 12 12
-8 -8 -8 -7 -8 -8 -7 -7 -7 -8 -7 -7 -7 -7 -7 -7 -5 -4 -5 -6 -6 -6 -6 -4 -5 -5 -5 -6 -4 -2 -2 1 0 -2 -0 4 3 4 2 3 4 6 8
-8 -8 -8 -8 -8 -8 -8 -8 -8 -8 -8 -9 -9 -9 -8 -8 -8 -6 -5 -6 -6 -7 -7 -6 -6 -6 -6 -6 -5 -4 -3 -1 -0 -2 -2 0 -1 0 2 1 1 1 2
-8 -8 -9 -9 -9 -9 -9 -9 -7 -7 -8 -9 -9 -10 -10 -10 -9 -8 -7 -7 -6 -7 -7 -7 -6 -7 -6 -7 -6 -4 -5 -3 -1 -3 -6 -5 -3 -3 -0 -0 -0 -1 -0
-8 -8 -8 -9 -9 -10 -10 -10 -9 -7 -8 -8 -9 -10 -11 -10 -10 -10 -10 -9 -8 -7 -7 -7 -7 -7 -7 -7 -7 -6 -5 -3 -4 -3 -6 -6 -5 -4 -2 -1 -1 -2 -1

GFSMA_925_temp_141.txt.gz
Temp
15 16 16 17 18 18 18 18 18 19 19 20 20 21 22 22 21 22 22 22 21 21 20 19 19 19 18 18 18 18 18 18 17 17 17 17 17 16 16 16 16 16 16
13 14 16 18 19 19 17 16 17 17 17 17 18 19 20 20 21 22 22 21 21 20 20 19 18 18 19 18 18 18 18 18 18 18 17 17 16 16 16 16 16 16 16
11 12 14 15 17 18 17 17 17 16 16 17 16 16 17 17 18 19 21 21 20 21 20 19 18 18 18 18 18 18 18 18 18 17 17 17 17 16 16 16 16 15 15
10 11 12 13 15 15 16 17 17 18 15 15 15 16 16 18 17 15 18 19 20 20 20 20 19 19 18 18 18 18 18 18 17 18 17 17 17 16 16 16 16 16 15
9 9 10 11 12 12 14 15 17 18 18 17 16 15 14 15 16 18 17 18 18 20 21 20 20 20 19 18 18 18 18 17 17 17 17 17 17 16 16 16 16 16 15
8 8 9 9 10 11 12 14 15 16 17 18 18 18 17 15 16 16 17 19 18 18 19 20 19 20 20 19 18 18 18 17 17 17 17 17 17 16 16 16 16 16 16
8 7 8 8 9 10 11 12 13 14 16 17 18 18 17 17 16 16 16 17 18 18 18 19 20 19 20 19 18 18 18 18 17 17 17 17 17 17 16 16 16 16 16
7 6 7 7 8 9 9 10 11 12 14 16 17 19 19 20 18 16 16 16 17 17 18 18 18 20 20 20 20 19 18 18 17 17 17 17 17 17 17 16 16 16 16
5 5 4 4 4 5 7 9 10 11 13 14 16 18 19 19 22 19 18 17 17 17 18 19 18 19 19 20 20 20 20 18 18 18 17 17 17 16 16 16 16 16 15
3 3 2 2 3 3 4 5 7 9 11 13 14 16 17 18 18 20 22 19 19 18 19 19 20 19 19 20 21 20 20 19 19 18 17 17 17 17 17 16 16 16 16
1 1 1 1 1 2 3 3 4 5 6 8 12 14 16 17 17 17 18 20 20 19 19 19 19 19 19 19 20 20 19 20 18 19 17 17 17 17 17 17 16 16 16
0 0 0 -0 1 1 2 3 3 4 4 6 8 10 13 16 16 16 17 19 19 19 18 19 18 19 19 19 19 20 20 19 19 19 18 17 17 17 17 17 17 17 16
-1 -1 -1 -1 -0 0 1 2 2 3 4 5 6 7 9 9 10 10 12 14 18 19 18 17 18 17 18 18 18 19 20 19 19 19 19 18 18 17 17 18 17 17 17
-2 -2 -2 -2 -2 -1 -0 1 2 3 3 4 5 5 6 7 8 9 10 12 15 16 18 18 17 17 17 17 17 18 18 19 19 19 19 19 19 17 17 17 17 17 17
-3 -3 -2 -2 -2 -2 -1 -0 1 2 3 4 4 5 5 6 7 9 10 12 12 14 16 18 18 18 17 17 18 17 17 18 18 18 18 18 18 18 16 16 16 16 16
-3 -3 -3 -4 -3 -3 -2 -1 -0 4 3 3 4 5 5 6 8 9 11 12 13 14 13 16 18 18 18 16 17 17 17 16 15 16 17 17 17 17 17 16 16 16 15
-4 -4 -4 -4 -4 -4 -3 -2 -2 -1 -0 -0 0 1 2 3 6 8 10 11 12 13 13 13 15 16 16 16 15 16 17 14 14 15 14 15 16 16 16 17 16 14 15
-5 -4 -4 -5 -5 -4 -4 -4 -4 -3 -3 -2 -2 -2 -2 -0 1 3 4 6 8 10 11 12 12 14 15 15 15 14 13 15 13 13 14 16 16 16 15 16 14 14 14
-4 -5 -5 -5 -5 -5 -4 -5 -4 -4 -4 -4 -4 -3 -3 -3 -2 -1 1 3 5 8 8 10 10 10 12 8 10 13 13 13 13 13 14 15 16 15 15 14 13 13 13
-4 -4 -5 -5 -6 -6 -5 -5 -5 -5 -4 -5 -5 -4 -4 -4 -4 -3 -3 -1 1 4 4 6 5 2 1 1 3 2 5 6 8 10 10 12 13 14 13 13 12 12 12
-6 -5 -5 -5 -5 -6 -6 -6 -6 -6 -6 -6 -6 -6 -5 -4 -4 -4 -4 -4 -2 -1 -0 -0 0 -1 -2 -1 -1 0 2 5 3 3 5 6 8 5 8 8 7 9 13
-6 -7 -6 -7 -7 -6 -6 -6 -7 -7 -7 -7 -7 -7 -7 -6 -4 -4 -5 -5 -5 -4 -4 -3 -4 -3 -4 -4 -3 -1 -0 2 4 1 2 3 3 4 1 1 2 4 7
-6 -7 -7 -7 -8 -7 -6 -6 -7 -7 -8 -9 -9 -8 -8 -8 -6 -5 -5 -5 -5 -5 -6 -5 -5 -5 -5 -5 -4 -2 -1 0 -2 -4 -1 3 1 0 -0 1 0 3 3
-6 -7 -8 -8 -8 -8 -7 -6 -6 -7 -8 -9 -9 -10 -9 -9 -8 -7 -6 -5 -6 -6 -6 -6 -6 -6 -6 -6 -4 -3 -1 -1 -2 -3 -4 -1 -3 -2 -1 -1 -1 -0 0
-6 -7 -8 -9 -9 -9 -9 -7 -6 -6 -7 -9 -10 -9 -10 -10 -9 -8 -8 -7 -6 -7 -6 -6 -6 -6 -6 -6 -6 -5 -4 -2 -1 -3 -6 -5 -3 -3 -2 -2 -1 -1 -0
-6 -6 -6 -8 -9 -9 -9 -9 -8 -7 -7 -8 -9 -10 -10 -10 -10 -10 -9 -8 -7 -7 -7 -6 -7 -7 -7 -7 -7 -6 -6 -5 -4 -2 -6 -5 -3 -4 -2 -2 -2 -2 -2